Time,TemperatureF,DewpointF,PressureIn,WindDirection,WindDirectionDegrees,WindSpeedMPH,WindSpeedGustMPH,Humidity,HourlyPrecipIn,Conditions,Clouds,dailyrainin,SoftwareType,DateUTC
2013-07-27 00:01:00,69.8,65.8,30.02,SSW,209,9.0,12.0,87,0.00,,,0.00,VWS V14.01,2013-07-27 04:01:00,
2013-07-27 00:04:00,69.8,66.1,30.02,SW,224,5.0,12.0,88,0.00,,,0.00,VWS V14.01,2013-07-27 04:04:00,
2013-07-27 00:05:00,69.8,66.1,30.02,WSW,240,11.0,12.0,88,0.00,,,0.00,VWS V14.01,2013-07-27 04:05:00,
2013-07-27 00:06:00,69.8,66.1,30.02,SSW,206,3.0,8.0,88,0.00,,,0.00,VWS V14.01,2013-07-27 04:06:00,
2013-07-27 00:07:00,69.8,66.1,30.02,SW,225,9.0,9.0,88,0.00,,,0.00,VWS V14.01,2013-07-27 04:07:00,
2013-07-27 00:09:00,69.8,66.1,30.02,SW,221,3.0,9.0,88,0.00,,,0.00,VWS V14.01,2013-07-27 04:09:00,
2013-07-27 00:11:00,69.6,65.9,30.02,SW,225,6.0,10.0,88,0.00,,,0.00,VWS V14.01,2013-07-27 04:11:00,
2013-07-27 00:13:00,69.6,65.9,30.02,SW,215,10.0,11.0,88,0.00,,,0.00,VWS V14.01,2013-07-27 04:13:00,
2013-07-27 00:14:00,69.6,65.9,30.02,SW,214,3.0,11.0,88,0.00,,,0.00,VWS V14.01,2013-07-27 04:14:00,
2013-07-27 00:16:00,69.6,65.9,30.02,SW,215,4.0,11.0,88,0.00,,,0.00,VWS V14.01,2013-07-27 04:16:00,
2013-07-27 00:17:00,69.6,65.9,30.02,SW,215,5.0,11.0,88,0.00,,,0.00,VWS V14.01,2013-07-27 04:17:00,
2013-07-27 00:19:00,69.6,65.9,30.02,SW,221,0.0,11.0,88,0.00,,,0.00,VWS V14.01,2013-07-27 04:19:00,
2013-07-27 00:21:00,69.6,65.9,30.02,SW,221,2.0,11.0,88,0.00,,,0.00,VWS V14.01,2013-07-27 04:21:00,
2013-07-27 00:23:00,69.6,65.9,30.02,SW,215,4.0,11.0,88,0.00,,,0.00,VWS V14.01,2013-07-27 04:23:00,
2013-07-27 00:24:00,69.6,65.9,30.02,WSW,247,11.0,11.0,88,0.00,,,0.00,VWS V14.01,2013-07-27 04:24:00,
2013-07-27 00:25:00,69.4,65.7,30.02,SW,217,4.0,11.0,88,0.00,,,0.00,VWS V14.01,2013-07-27 04:25:00,
2013-07-27 00:28:00,69.4,65.7,30.02,SW,225,5.0,11.0,88,0.00,,,0.00,VWS V14.01,2013-07-27 04:28:00,
2013-07-27 00:31:00,69.4,65.7,30.02,SW,218,5.0,11.0,88,0.00,,,0.00,VWS V14.01,2013-07-27 04:31:00,
2013-07-27 00:33:00,69.4,65.7,30.02,SW,218,4.0,11.0,88,0.00,,,0.00,VWS V14.01,2013-07-27 04:33:00,
2013-07-27 00:34:00,69.4,65.7,30.02,SW,218,5.0,11.0,88,0.00,,,0.00,VWS V14.01,2013-07-27 04:34:00,
2013-07-27 00:38:00,69.3,65.6,30.02,SW,227,7.0,8.0,88,0.00,,,0.00,VWS V14.01,2013-07-27 04:38:00,
2013-07-27 00:39:00,69.3,65.6,30.02,SW,230,5.0,10.0,88,0.00,,,0.00,VWS V14.01,2013-07-27 04:39:00,
2013-07-27 00:40:00,69.1,65.4,30.02,WSW,240,6.0,10.0,88,0.00,,,0.00,VWS V14.01,2013-07-27 04:40:00,
2013-07-27 00:43:00,69.1,65.4,30.02,SSW,209,4.0,12.0,88,0.00,,,0.00,VWS V14.01,2013-07-27 04:43:00,
2013-07-27 00:44:00,69.1,65.4,30.02,SW,217,7.0,12.0,88,0.00,,,0.00,VWS V14.01,2013-07-27 04:44:00,
2013-07-27 00:45:00,69.1,65.4,30.02,SW,224,5.0,12.0,88,0.00,,,0.00,VWS V14.01,2013-07-27 04:45:00,
2013-07-27 00:47:00,68.9,65.2,30.02,SW,223,10.0,12.0,88,0.00,,,0.00,VWS V14.01,2013-07-27 04:47:00,
2013-07-27 00:48:00,68.9,65.2,30.02,SW,234,6.0,13.0,88,0.00,,,0.00,VWS V14.01,2013-07-27 04:48:00,
2013-07-27 00:49:00,68.9,65.2,30.02,SW,232,10.0,13.0,88,0.00,,,0.00,VWS V14.01,2013-07-27 04:49:00,
2013-07-27 00:51:00,68.9,65.2,30.02,SW,225,5.0,13.0,88,0.00,,,0.00,VWS V14.01,2013-07-27 04:51:00,
2013-07-27 00:54:00,68.8,65.1,30.02,SW,227,7.0,13.0,88,0.00,,,0.00,VWS V14.01,2013-07-27 04:54:00,
2013-07-27 00:55:00,68.8,65.1,30.02,SW,225,6.0,13.0,88,0.00,,,0.00,VWS V14.01,2013-07-27 04:55:00,
2013-07-27 00:57:00,68.8,65.1,30.02,SW,227,8.0,13.0,88,0.00,,,0.00,VWS V14.01,2013-07-27 04:57:00,
2013-07-27 00:58:00,68.8,65.1,30.02,SW,221,8.0,13.0,88,0.00,,,0.00,VWS V14.01,2013-07-27 04:58:00,
2013-07-27 01:02:00,68.8,65.1,30.02,SW,231,7.0,13.0,88,0.00,,,0.00,VWS V14.01,2013-07-27 05:02:00,
2013-07-27 01:03:00,68.8,65.1,30.02,SSW,212,5.0,13.0,88,0.00,,,0.00,VWS V14.01,2013-07-27 05:03:00,
2013-07-27 01:05:00,68.6,64.9,30.02,SW,232,8.0,13.0,88,0.00,,,0.00,VWS V14.01,2013-07-27 05:05:00,
2013-07-27 01:06:00,68.6,64.9,30.02,SW,232,5.0,8.0,88,0.00,,,0.00,VWS V14.01,2013-07-27 05:06:00,
2013-07-27 01:08:00,68.6,64.9,30.02,SW,232,1.0,8.0,88,0.00,,,0.00,VWS V14.01,2013-07-27 05:08:00,
2013-07-27 01:10:00,68.6,64.9,30.02,SW,232,0.0,8.0,88,0.00,,,0.00,VWS V14.01,2013-07-27 05:10:00,
2013-07-27 01:11:00,68.6,64.9,30.02,SW,232,3.0,8.0,88,0.00,,,0.00,VWS V14.01,2013-07-27 05:11:00,
2013-07-27 01:14:00,68.4,64.7,30.02,SW,232,0.0,8.0,88,0.00,,,0.00,VWS V14.01,2013-07-27 05:14:00,
2013-07-27 01:15:00,68.4,64.7,30.02,SW,232,0.0,8.0,88,0.00,,,0.00,VWS V14.01,2013-07-27 05:15:00,
2013-07-27 01:17:00,68.4,64.7,30.02,WSW,238,3.0,8.0,88,0.00,,,0.00,VWS V14.01,2013-07-27 05:17:00,
2013-07-27 01:19:00,68.3,64.6,30.02,WSW,238,3.0,8.0,88,0.00,,,0.00,VWS V14.01,2013-07-27 05:19:00,
2013-07-27 01:22:00,68.3,64.6,30.02,SW,236,6.0,8.0,88,0.00,,,0.00,VWS V14.01,2013-07-27 05:22:00,
2013-07-27 01:23:00,68.3,64.6,30.02,SW,235,0.0,8.0,88,0.00,,,0.00,VWS V14.01,2013-07-27 05:23:00,
2013-07-27 01:25:00,68.3,64.6,30.02,WSW,240,4.0,8.0,88,0.00,,,0.00,VWS V14.01,2013-07-27 05:25:00,
2013-07-27 01:28:00,68.1,64.4,30.02,WSW,242,4.0,11.0,88,0.00,,,0.00,VWS V14.01,2013-07-27 05:28:00,
2013-07-27 01:29:00,68.1,64.4,30.02,WSW,242,4.0,11.0,88,0.00,,,0.00,VWS V14.01,2013-07-27 05:29:00,
2013-07-27 01:30:00,68.1,64.7,30.02,WSW,244,6.0,11.0,89,0.00,,,0.00,VWS V14.01,2013-07-27 05:30:00,
2013-07-27 01:34:00,68.1,64.7,30.02,SW,236,2.0,11.0,89,0.00,,,0.00,VWS V14.01,2013-07-27 05:34:00,
2013-07-27 01:35:00,68.1,64.7,30.02,WSW,241,6.0,11.0,89,0.00,,,0.00,VWS V14.01,2013-07-27 05:35:00,
2013-07-27 01:36:00,68.1,64.7,30.02,WSW,241,1.0,5.0,89,0.00,,,0.00,VWS V14.01,2013-07-27 05:36:00,
2013-07-27 01:41:00,67.9,64.5,30.02,WSW,244,5.0,10.0,89,0.00,,,0.00,VWS V14.01,2013-07-27 05:41:00,
2013-07-27 01:42:00,67.9,64.5,30.02,West,259,5.0,10.0,89,0.00,,,0.00,VWS V14.01,2013-07-27 05:42:00,
2013-07-27 01:44:00,67.9,64.5,30.02,West,259,4.0,10.0,89,0.00,,,0.00,VWS V14.01,2013-07-27 05:44:00,
2013-07-27 01:48:00,67.9,64.5,30.02,WSW,240,6.0,11.0,89,0.00,,,0.00,VWS V14.01,2013-07-27 05:48:00,
2013-07-27 01:49:00,67.9,64.5,30.02,SW,222,5.0,11.0,89,0.00,,,0.00,VWS V14.01,2013-07-27 05:49:00,
2013-07-27 01:53:00,67.8,64.4,30.02,SW,236,7.0,11.0,89,0.00,,,0.00,VWS V14.01,2013-07-27 05:53:00,
2013-07-27 01:54:00,67.8,64.4,30.02,SW,236,6.0,11.0,89,0.00,,,0.00,VWS V14.01,2013-07-27 05:54:00,
2013-07-27 01:56:00,67.8,64.4,30.02,SW,234,6.0,11.0,89,0.00,,,0.00,VWS V14.01,2013-07-27 05:56:00,
2013-07-27 01:57:00,67.8,64.4,30.02,WSW,247,8.0,11.0,89,0.00,,,0.00,VWS V14.01,2013-07-27 05:57:00,
2013-07-27 01:59:00,67.8,64.4,30.02,WSW,242,6.0,11.0,89,0.00,,,0.00,VWS V14.01,2013-07-27 05:59:00,
2013-07-27 02:00:00,67.8,64.4,30.02,WSW,240,8.0,11.0,89,0.00,,,0.00,VWS V14.01,2013-07-27 06:00:00,
2013-07-27 02:04:00,67.8,64.4,30.01,WSW,243,5.0,11.0,89,0.00,,,0.00,VWS V14.01,2013-07-27 06:04:00,
2013-07-27 02:05:00,67.8,64.4,30.01,WSW,252,4.0,11.0,89,0.00,,,0.00,VWS V14.01,2013-07-27 06:05:00,
2013-07-27 02:07:00,67.6,64.2,30.01,WSW,244,6.0,7.0,89,0.00,,,0.00,VWS V14.01,2013-07-27 06:07:00,
2013-07-27 02:10:00,67.6,64.2,30.01,WSW,243,6.0,7.0,89,0.00,,,0.00,VWS V14.01,2013-07-27 06:10:00,
2013-07-27 02:12:00,67.6,64.2,30.01,WSW,245,4.0,7.0,89,0.00,,,0.00,VWS V14.01,2013-07-27 06:12:00,
2013-07-27 02:13:00,67.6,64.2,30.01,WSW,242,5.0,7.0,89,0.00,,,0.00,VWS V14.01,2013-07-27 06:13:00,
2013-07-27 02:15:00,67.6,64.2,30.01,WSW,239,8.0,8.0,89,0.00,,,0.00,VWS V14.01,2013-07-27 06:15:00,
2013-07-27 02:16:00,67.6,64.2,30.01,WSW,250,1.0,8.0,89,0.00,,,0.00,VWS V14.01,2013-07-27 06:16:00,
2013-07-27 02:18:00,67.6,64.2,30.01,WSW,247,7.0,8.0,89,0.00,,,0.00,VWS V14.01,2013-07-27 06:18:00,
2013-07-27 02:19:00,67.6,64.2,30.01,WSW,248,1.0,8.0,89,0.00,,,0.00,VWS V14.01,2013-07-27 06:19:00,
2013-07-27 02:20:00,67.6,64.2,30.01,WSW,251,2.0,8.0,89,0.00,,,0.00,VWS V14.01,2013-07-27 06:20:00,
2013-07-27 02:21:00,67.6,64.2,30.01,WSW,252,3.0,8.0,89,0.00,,,0.00,VWS V14.01,2013-07-27 06:21:00,
2013-07-27 02:23:00,67.4,64.1,30.01,WSW,242,6.0,8.0,89,0.00,,,0.00,VWS V14.01,2013-07-27 06:23:00,
2013-07-27 02:25:00,67.4,64.4,30.01,WSW,242,2.0,8.0,90,0.00,,,0.00,VWS V14.01,2013-07-27 06:25:00,
2013-07-27 02:26:00,67.4,64.4,30.01,WSW,243,0.0,8.0,90,0.00,,,0.00,VWS V14.01,2013-07-27 06:26:00,
2013-07-27 02:30:00,67.4,64.4,30.01,WSW,248,2.0,8.0,90,0.00,,,0.00,VWS V14.01,2013-07-27 06:30:00,
2013-07-27 02:31:00,67.4,64.4,30.01,WSW,237,6.0,8.0,90,0.00,,,0.00,VWS V14.01,2013-07-27 06:31:00,
2013-07-27 02:32:00,67.4,64.4,30.01,SW,236,0.0,8.0,90,0.00,,,0.00,VWS V14.01,2013-07-27 06:32:00,
2013-07-27 02:35:00,67.4,64.4,30.01,WSW,242,7.0,8.0,90,0.00,,,0.00,VWS V14.01,2013-07-27 06:35:00,
2013-07-27 02:36:00,67.4,64.4,30.01,WSW,242,0.0,7.0,90,0.00,,,0.00,VWS V14.01,2013-07-27 06:36:00,
2013-07-27 02:38:00,67.4,64.4,30.01,SW,233,4.0,7.0,90,0.00,,,0.00,VWS V14.01,2013-07-27 06:38:00,
2013-07-27 02:40:00,67.3,64.3,30.01,WSW,241,8.0,8.0,90,0.00,,,0.00,VWS V14.01,2013-07-27 06:40:00,
2013-07-27 02:42:00,67.3,64.3,30.01,WSW,238,5.0,8.0,90,0.00,,,0.00,VWS V14.01,2013-07-27 06:42:00,
2013-07-27 02:43:00,67.3,64.3,30.01,WSW,241,4.0,8.0,90,0.00,,,0.00,VWS V14.01,2013-07-27 06:43:00,
2013-07-27 02:45:00,67.3,64.3,30.01,WSW,240,0.0,8.0,90,0.00,,,0.00,VWS V14.01,2013-07-27 06:45:00,
2013-07-27 02:48:00,67.3,64.3,30.01,WSW,244,0.0,8.0,90,0.00,,,0.00,VWS V14.01,2013-07-27 06:48:00,
2013-07-27 02:49:00,67.3,64.3,30.01,WSW,244,0.0,8.0,90,0.00,,,0.00,VWS V14.01,2013-07-27 06:49:00,
2013-07-27 02:50:00,67.3,64.3,30.01,WSW,244,0.0,8.0,90,0.00,,,0.00,VWS V14.01,2013-07-27 06:50:00,
2013-07-27 02:52:00,67.3,64.6,30.01,WSW,247,4.0,8.0,91,0.00,,,0.00,VWS V14.01,2013-07-27 06:52:00,
2013-07-27 02:56:00,67.3,64.3,30.01,WSW,250,7.0,8.0,90,0.00,,,0.00,VWS V14.01,2013-07-27 06:56:00,
2013-07-27 02:57:00,67.3,64.6,30.01,WSW,254,0.0,8.0,91,0.00,,,0.00,VWS V14.01,2013-07-27 06:57:00,
2013-07-27 02:58:00,67.3,64.6,30.01,WSW,253,3.0,8.0,91,0.00,,,0.00,VWS V14.01,2013-07-27 06:58:00,
2013-07-27 03:00:00,67.3,64.6,30.01,WSW,255,0.0,8.0,91,0.00,,,0.00,VWS V14.01,2013-07-27 07:00:00,
2013-07-27 03:04:00,67.3,64.6,30.01,WSW,254,0.0,8.0,91,0.00,,,0.00,VWS V14.01,2013-07-27 07:04:00,
2013-07-27 03:06:00,67.1,64.4,30.00,WSW,246,5.0,7.0,91,0.00,,,0.00,VWS V14.01,2013-07-27 07:06:00,
2013-07-27 03:07:00,67.3,64.6,30.00,WSW,246,0.0,7.0,91,0.00,,,0.00,VWS V14.01,2013-07-27 07:07:00,
2013-07-27 03:10:00,67.3,64.6,30.00,WSW,254,4.0,7.0,91,0.00,,,0.00,VWS V14.01,2013-07-27 07:10:00,
2013-07-27 03:12:00,67.1,64.4,30.00,WSW,254,3.0,7.0,91,0.00,,,0.00,VWS V14.01,2013-07-27 07:12:00,
2013-07-27 03:13:00,67.1,64.4,30.00,WSW,254,5.0,7.0,91,0.00,,,0.00,VWS V14.01,2013-07-27 07:13:00,
2013-07-27 03:14:00,67.1,64.4,30.00,WSW,255,0.0,7.0,91,0.00,,,0.00,VWS V14.01,2013-07-27 07:14:00,
2013-07-27 03:16:00,67.1,64.4,30.00,West,265,5.0,8.0,91,0.00,,,0.00,VWS V14.01,2013-07-27 07:16:00,
2013-07-27 03:17:00,67.1,64.4,30.00,West,265,1.0,8.0,91,0.00,,,0.00,VWS V14.01,2013-07-27 07:17:00,
2013-07-27 03:19:00,67.1,64.4,30.00,West,262,6.0,8.0,91,0.00,,,0.00,VWS V14.01,2013-07-27 07:19:00,
2013-07-27 03:22:00,67.1,64.4,30.00,West,268,0.0,8.0,91,0.00,,,0.00,VWS V14.01,2013-07-27 07:22:00,
2013-07-27 03:23:00,67.1,64.4,30.00,West,269,5.0,8.0,91,0.00,,,0.00,VWS V14.01,2013-07-27 07:23:00,
2013-07-27 03:27:00,67.1,64.4,30.00,West,269,0.0,8.0,91,0.00,,,0.00,VWS V14.01,2013-07-27 07:27:00,
2013-07-27 03:28:00,67.1,64.4,30.00,West,269,5.0,8.0,91,0.00,,,0.00,VWS V14.01,2013-07-27 07:28:00,
2013-07-27 03:29:00,67.1,64.4,30.00,West,263,6.0,8.0,91,0.00,,,0.00,VWS V14.01,2013-07-27 07:29:00,
2013-07-27 03:31:00,67.1,64.4,30.00,West,262,2.0,8.0,91,0.00,,,0.00,VWS V14.01,2013-07-27 07:31:00,
2013-07-27 03:32:00,67.1,64.4,30.00,West,263,0.0,8.0,91,0.00,,,0.00,VWS V14.01,2013-07-27 07:32:00,
2013-07-27 03:35:00,67.1,64.4,30.00,West,261,0.0,8.0,91,0.00,,,0.00,VWS V14.01,2013-07-27 07:35:00,
2013-07-27 03:37:00,67.1,64.4,30.00,West,261,5.0,6.0,91,0.00,,,0.00,VWS V14.01,2013-07-27 07:37:00,
2013-07-27 03:40:00,67.1,64.4,30.00,West,263,0.0,7.0,91,0.00,,,0.00,VWS V14.01,2013-07-27 07:40:00,
2013-07-27 03:42:00,67.1,64.4,30.00,West,261,3.0,7.0,91,0.00,,,0.00,VWS V14.01,2013-07-27 07:42:00,
2013-07-27 03:44:00,67.1,64.4,30.00,West,261,0.0,7.0,91,0.00,,,0.00,VWS V14.01,2013-07-27 07:44:00,
2013-07-27 03:47:00,66.9,64.2,30.00,West,265,3.0,8.0,91,0.00,,,0.00,VWS V14.01,2013-07-27 07:47:00,
2013-07-27 03:48:00,66.9,64.2,30.00,West,266,4.0,8.0,91,0.00,,,0.00,VWS V14.01,2013-07-27 07:48:00,
2013-07-27 03:49:00,66.9,64.2,30.00,West,266,0.0,8.0,91,0.00,,,0.00,VWS V14.01,2013-07-27 07:49:00,
2013-07-27 03:51:00,66.9,64.2,30.00,West,262,0.0,8.0,91,0.00,,,0.00,VWS V14.01,2013-07-27 07:51:00,
2013-07-27 03:52:00,66.9,64.2,30.00,West,263,0.0,8.0,91,0.00,,,0.00,VWS V14.01,2013-07-27 07:52:00,
2013-07-27 03:53:00,66.9,64.2,30.00,West,264,0.0,8.0,91,0.00,,,0.00,VWS V14.01,2013-07-27 07:53:00,
2013-07-27 03:56:00,66.9,64.2,30.00,West,262,4.0,8.0,91,0.00,,,0.00,VWS V14.01,2013-07-27 07:56:00,
2013-07-27 03:57:00,66.9,64.2,30.00,West,263,0.0,8.0,91,0.00,,,0.00,VWS V14.01,2013-07-27 07:57:00,
2013-07-27 03:59:00,66.9,64.2,30.00,West,262,4.0,8.0,91,0.00,,,0.00,VWS V14.01,2013-07-27 07:59:00,
2013-07-27 04:01:00,66.8,64.1,30.00,West,263,0.0,8.0,91,0.00,,,0.00,VWS V14.01,2013-07-27 08:01:00,
2013-07-27 04:02:00,66.8,64.1,30.00,West,263,5.0,8.0,91,0.00,,,0.00,VWS V14.01,2013-07-27 08:02:00,
2013-07-27 04:05:00,66.8,64.1,30.00,West,260,4.0,6.0,91,0.00,,,0.00,VWS V14.01,2013-07-27 08:05:00,
2013-07-27 04:06:00,66.8,64.1,30.00,West,260,0.0,6.0,91,0.00,,,0.00,VWS V14.01,2013-07-27 08:06:00,
2013-07-27 04:07:00,66.8,64.1,30.00,West,263,1.0,6.0,91,0.00,,,0.00,VWS V14.01,2013-07-27 08:07:00,
2013-07-27 04:09:00,66.8,64.1,30.00,West,261,0.0,6.0,91,0.00,,,0.00,VWS V14.01,2013-07-27 08:09:00,
2013-07-27 04:12:00,66.8,64.4,30.00,West,263,5.0,6.0,92,0.00,,,0.00,VWS V14.01,2013-07-27 08:12:00,
2013-07-27 04:13:00,66.8,64.4,30.00,West,261,0.0,6.0,92,0.00,,,0.00,VWS V14.01,2013-07-27 08:13:00,
2013-07-27 04:14:00,66.8,64.4,30.00,West,263,4.0,6.0,92,0.00,,,0.00,VWS V14.01,2013-07-27 08:14:00,
2013-07-27 04:15:00,66.8,64.4,30.00,West,261,5.0,6.0,92,0.00,,,0.00,VWS V14.01,2013-07-27 08:15:00,
2013-07-27 04:17:00,66.8,64.4,30.00,WSW,258,4.0,7.0,92,0.00,,,0.00,VWS V14.01,2013-07-27 08:17:00,
2013-07-27 04:19:00,66.6,64.2,30.00,West,262,3.0,7.0,92,0.00,,,0.00,VWS V14.01,2013-07-27 08:19:00,
2013-07-27 04:21:00,66.6,64.2,30.00,West,261,4.0,7.0,92,0.00,,,0.00,VWS V14.01,2013-07-27 08:21:00,
2013-07-27 04:22:00,66.6,64.2,30.00,West,261,0.0,7.0,92,0.00,,,0.00,VWS V14.01,2013-07-27 08:22:00,
2013-07-27 04:23:00,66.6,64.2,30.00,West,261,0.0,7.0,92,0.00,,,0.00,VWS V14.01,2013-07-27 08:23:00,
2013-07-27 04:24:00,66.6,64.2,30.00,West,262,0.0,7.0,92,0.00,,,0.00,VWS V14.01,2013-07-27 08:24:00,
2013-07-27 04:26:00,66.6,64.2,30.00,West,261,0.0,7.0,92,0.00,,,0.00,VWS V14.01,2013-07-27 08:26:00,
2013-07-27 04:32:00,66.4,64.0,30.00,West,260,0.0,7.0,92,0.00,,,0.00,VWS V14.01,2013-07-27 08:32:00,
2013-07-27 04:33:00,66.4,64.0,30.00,West,261,0.0,7.0,92,0.00,,,0.00,VWS V14.01,2013-07-27 08:33:00,
2013-07-27 04:34:00,66.4,64.0,30.00,West,262,0.0,7.0,92,0.00,,,0.00,VWS V14.01,2013-07-27 08:34:00,
2013-07-27 04:35:00,66.4,64.0,30.00,West,260,0.0,7.0,92,0.00,,,0.00,VWS V14.01,2013-07-27 08:35:00,
2013-07-27 04:36:00,66.4,64.0,30.00,West,262,0.0,0.0,92,0.00,,,0.00,VWS V14.01,2013-07-27 08:36:00,
2013-07-27 04:40:00,66.4,64.0,30.00,West,261,0.0,0.0,92,0.00,,,0.00,VWS V14.01,2013-07-27 08:40:00,
2013-07-27 04:42:00,66.4,64.0,30.00,West,262,0.0,0.0,92,0.00,,,0.00,VWS V14.01,2013-07-27 08:42:00,
2013-07-27 04:43:00,66.3,63.9,30.00,West,260,0.0,0.0,92,0.00,,,0.00,VWS V14.01,2013-07-27 08:43:00,
2013-07-27 04:45:00,66.3,63.9,30.00,West,261,0.0,0.0,92,0.00,,,0.00,VWS V14.01,2013-07-27 08:45:00,
2013-07-27 04:47:00,66.3,63.9,30.00,WSW,253,4.0,7.0,92,0.00,,,0.00,VWS V14.01,2013-07-27 08:47:00,
2013-07-27 04:49:00,66.3,63.9,30.00,WSW,254,5.0,7.0,92,0.00,,,0.00,VWS V14.01,2013-07-27 08:49:00,
2013-07-27 04:53:00,66.3,63.9,30.00,WSW,254,4.0,7.0,92,0.00,,,0.00,VWS V14.01,2013-07-27 08:53:00,
2013-07-27 04:54:00,66.3,63.9,30.00,WSW,253,0.0,7.0,92,0.00,,,0.00,VWS V14.01,2013-07-27 08:54:00,
2013-07-27 04:55:00,66.3,63.9,30.00,WSW,254,2.0,7.0,92,0.00,,,0.00,VWS V14.01,2013-07-27 08:55:00,
2013-07-27 04:56:00,66.3,63.9,30.00,WSW,251,0.0,7.0,92,0.00,,,0.00,VWS V14.01,2013-07-27 08:56:00,
2013-07-27 04:59:00,66.1,63.7,30.00,WSW,248,2.0,8.0,92,0.00,,,0.00,VWS V14.01,2013-07-27 08:59:00,
2013-07-27 05:00:00,66.1,63.7,30.00,WSW,252,5.0,8.0,92,0.00,,,0.00,VWS V14.01,2013-07-27 09:00:00,
2013-07-27 05:01:00,66.1,63.7,30.00,WSW,250,5.0,8.0,92,0.00,,,0.00,VWS V14.01,2013-07-27 09:01:00,
2013-07-27 05:02:00,66.1,63.7,30.00,WSW,247,3.0,8.0,92,0.00,,,0.00,VWS V14.01,2013-07-27 09:02:00,
2013-07-27 05:05:00,66.1,63.7,30.00,WSW,246,0.0,8.0,92,0.00,,,0.00,VWS V14.01,2013-07-27 09:05:00,
2013-07-27 05:06:00,66.1,63.7,30.00,WSW,248,2.0,5.0,92,0.00,,,0.00,VWS V14.01,2013-07-27 09:06:00,
2013-07-27 05:09:00,66.1,63.7,30.00,WSW,246,0.0,5.0,92,0.00,,,0.00,VWS V14.01,2013-07-27 09:09:00,
2013-07-27 05:10:00,66.0,63.6,30.00,WSW,246,6.0,6.0,92,0.00,,,0.00,VWS V14.01,2013-07-27 09:10:00,
2013-07-27 05:11:00,66.0,63.6,30.00,WSW,246,0.0,6.0,92,0.00,,,0.00,VWS V14.01,2013-07-27 09:11:00,
2013-07-27 05:15:00,66.0,63.6,30.00,WSW,253,2.0,7.0,92,0.00,,,0.00,VWS V14.01,2013-07-27 09:15:00,
2013-07-27 05:16:00,66.0,63.6,30.00,WSW,252,0.0,7.0,92,0.00,,,0.00,VWS V14.01,2013-07-27 09:16:00,
2013-07-27 05:18:00,66.0,63.6,30.00,WSW,250,0.0,7.0,92,0.00,,,0.00,VWS V14.01,2013-07-27 09:18:00,
2013-07-27 05:19:00,66.0,63.9,30.00,WSW,252,0.0,7.0,93,0.00,,,0.00,VWS V14.01,2013-07-27 09:19:00,
2013-07-27 05:22:00,65.8,63.7,30.00,WSW,245,3.0,7.0,93,0.00,,,0.00,VWS V14.01,2013-07-27 09:22:00,
2013-07-27 05:24:00,65.8,63.7,30.00,WSW,246,7.0,7.0,93,0.00,,,0.00,VWS V14.01,2013-07-27 09:24:00,
2013-07-27 05:25:00,65.8,63.7,30.00,WSW,244,6.0,7.0,93,0.00,,,0.00,VWS V14.01,2013-07-27 09:25:00,
2013-07-27 05:27:00,65.8,63.7,30.00,WSW,245,0.0,7.0,93,0.00,,,0.00,VWS V14.01,2013-07-27 09:27:00,
2013-07-27 05:28:00,65.8,63.7,30.00,WSW,242,0.0,7.0,93,0.00,,,0.00,VWS V14.01,2013-07-27 09:28:00,
2013-07-27 05:30:00,65.8,63.7,30.00,SW,231,3.0,7.0,93,0.00,,,0.00,VWS V14.01,2013-07-27 09:30:00,
2013-07-27 05:33:00,65.8,63.7,30.00,SW,223,0.0,7.0,93,0.00,,,0.00,VWS V14.01,2013-07-27 09:33:00,
2013-07-27 05:34:00,65.8,63.7,30.00,SW,225,0.0,7.0,93,0.00,,,0.00,VWS V14.01,2013-07-27 09:34:00,
2013-07-27 05:35:00,65.8,63.7,30.01,SW,224,0.0,7.0,93,0.00,,,0.00,VWS V14.01,2013-07-27 09:35:00,
2013-07-27 05:38:00,65.8,63.7,30.01,SW,224,0.0,0.0,93,0.00,,,0.00,VWS V14.01,2013-07-27 09:38:00,
2013-07-27 05:39:00,65.8,63.7,30.01,SW,223,0.0,0.0,93,0.00,,,0.00,VWS V14.01,2013-07-27 09:39:00,
2013-07-27 05:42:00,65.8,63.7,30.01,SW,222,0.0,0.0,93,0.00,,,0.00,VWS V14.01,2013-07-27 09:42:00,
2013-07-27 05:43:00,65.6,63.5,30.01,SW,224,0.0,0.0,93,0.00,,,0.00,VWS V14.01,2013-07-27 09:43:00,
2013-07-27 05:45:00,65.6,63.5,30.01,SW,222,0.0,0.0,93,0.00,,,0.00,VWS V14.01,2013-07-27 09:45:00,
2013-07-27 05:46:00,65.6,63.5,30.01,SW,222,0.0,0.0,93,0.00,,,0.00,VWS V14.01,2013-07-27 09:46:00,
2013-07-27 05:48:00,65.6,63.5,30.01,SW,224,0.0,0.0,93,0.00,,,0.00,VWS V14.01,2013-07-27 09:48:00,
2013-07-27 05:49:00,65.6,63.5,30.01,SW,222,0.0,0.0,93,0.00,,,0.00,VWS V14.01,2013-07-27 09:49:00,
2013-07-27 05:51:00,65.6,63.5,30.01,SW,224,0.0,0.0,93,0.00,,,0.00,VWS V14.01,2013-07-27 09:51:00,
2013-07-27 05:52:00,65.5,63.4,30.01,SW,225,0.0,4.0,93,0.00,,,0.00,VWS V14.01,2013-07-27 09:52:00,
2013-07-27 05:54:00,65.5,63.4,30.01,SW,225,4.0,5.0,93,0.00,,,0.00,VWS V14.01,2013-07-27 09:54:00,
2013-07-27 05:55:00,65.5,63.4,30.01,SW,225,0.0,5.0,93,0.00,,,0.00,VWS V14.01,2013-07-27 09:55:00,
2013-07-27 05:57:00,65.5,63.4,30.01,SW,225,0.0,5.0,93,0.00,,,0.00,VWS V14.01,2013-07-27 09:57:00,
2013-07-27 05:58:00,65.5,63.4,30.01,SW,225,0.0,5.0,93,0.00,,,0.00,VWS V14.01,2013-07-27 09:58:00,
2013-07-27 05:59:00,65.5,63.4,30.01,SW,223,2.0,5.0,93,0.00,,,0.00,VWS V14.01,2013-07-27 09:59:00,
2013-07-27 06:01:00,65.5,63.4,30.01,SW,223,3.0,5.0,93,0.00,,,0.00,VWS V14.01,2013-07-27 10:01:00,
2013-07-27 06:03:00,65.5,63.4,30.01,SW,225,0.0,7.0,93,0.00,,,0.00,VWS V14.01,2013-07-27 10:03:00,
2013-07-27 06:05:00,65.5,63.4,30.01,SW,224,4.0,7.0,93,0.00,,,0.00,VWS V14.01,2013-07-27 10:05:00,
2013-07-27 06:07:00,65.5,63.4,30.01,SW,223,0.0,5.0,93,0.00,,,0.00,VWS V14.01,2013-07-27 10:07:00,
2013-07-27 06:09:00,65.5,63.7,30.01,SW,223,0.0,5.0,94,0.00,,,0.00,VWS V14.01,2013-07-27 10:09:00,
2013-07-27 06:10:00,65.5,63.7,30.01,SW,225,4.0,5.0,94,0.00,,,0.00,VWS V14.01,2013-07-27 10:10:00,
2013-07-27 06:11:00,65.6,63.8,30.01,SW,225,0.0,5.0,94,0.00,,,0.00,VWS V14.01,2013-07-27 10:11:00,
2013-07-27 06:12:00,65.6,63.8,30.01,SW,225,0.0,5.0,94,0.00,,,0.00,VWS V14.01,2013-07-27 10:12:00,
2013-07-27 06:16:00,65.6,63.8,30.01,SW,225,0.0,6.0,94,0.00,,,0.00,VWS V14.01,2013-07-27 10:16:00,
2013-07-27 06:17:00,65.6,63.8,30.01,SW,225,5.0,6.0,94,0.00,,,0.00,VWS V14.01,2013-07-27 10:17:00,
2013-07-27 06:19:00,65.6,63.8,30.01,SW,232,0.0,8.0,94,0.00,,,0.00,VWS V14.01,2013-07-27 10:19:00,
2013-07-27 06:20:00,65.6,63.8,30.01,SW,232,3.0,8.0,94,0.00,,,0.00,VWS V14.01,2013-07-27 10:20:00,
2013-07-27 06:21:00,65.6,63.8,30.01,SW,231,0.0,8.0,94,0.00,,,0.00,VWS V14.01,2013-07-27 10:21:00,
2013-07-27 06:24:00,65.6,63.8,30.01,SW,232,6.0,8.0,94,0.00,,,0.00,VWS V14.01,2013-07-27 10:24:00,
2013-07-27 06:25:00,65.6,63.8,30.01,SW,233,6.0,8.0,94,0.00,,,0.00,VWS V14.01,2013-07-27 10:25:00,
2013-07-27 06:26:00,65.6,63.8,30.01,SW,233,0.0,8.0,94,0.00,,,0.00,VWS V14.01,2013-07-27 10:26:00,
2013-07-27 06:29:00,65.6,63.8,30.01,SW,232,3.0,8.0,94,0.00,,,0.00,VWS V14.01,2013-07-27 10:29:00,
2013-07-27 06:30:00,65.6,63.8,30.01,SW,231,0.0,8.0,94,0.00,,,0.00,VWS V14.01,2013-07-27 10:30:00,
2013-07-27 06:32:00,65.6,63.8,30.01,SW,232,4.0,8.0,94,0.00,,,0.00,VWS V14.01,2013-07-27 10:32:00,
2013-07-27 06:33:00,65.6,63.8,30.01,SW,232,3.0,8.0,94,0.00,,,0.00,VWS V14.01,2013-07-27 10:33:00,
2013-07-27 06:35:00,65.8,64.0,30.00,SW,231,4.0,7.0,94,0.00,,,0.00,VWS V14.01,2013-07-27 10:35:00,
2013-07-27 06:38:00,65.8,64.0,30.00,WSW,239,0.0,7.0,94,0.00,,,0.00,VWS V14.01,2013-07-27 10:38:00,
2013-07-27 06:39:00,65.8,64.0,30.00,WSW,239,0.0,7.0,94,0.00,,,0.00,VWS V14.01,2013-07-27 10:39:00,
2013-07-27 06:40:00,65.8,64.0,30.00,WSW,238,0.0,7.0,94,0.00,,,0.00,VWS V14.01,2013-07-27 10:40:00,
2013-07-27 06:43:00,66.0,64.2,30.00,WSW,238,4.0,7.0,94,0.00,,,0.00,VWS V14.01,2013-07-27 10:43:00,
2013-07-27 06:44:00,66.0,64.2,30.00,WSW,238,0.0,7.0,94,0.00,,,0.00,VWS V14.01,2013-07-27 10:44:00,
2013-07-27 06:46:00,66.1,64.3,30.00,WSW,238,2.0,7.0,94,0.00,,,0.00,VWS V14.01,2013-07-27 10:46:00,
2013-07-27 06:48:00,66.1,64.3,30.00,WSW,238,0.0,7.0,94,0.00,,,0.00,VWS V14.01,2013-07-27 10:48:00,
2013-07-27 06:50:00,66.3,64.5,30.00,WSW,239,0.0,7.0,94,0.00,,,0.00,VWS V14.01,2013-07-27 10:50:00,
2013-07-27 06:51:00,66.3,64.5,30.00,WSW,238,0.0,7.0,94,0.00,,,0.00,VWS V14.01,2013-07-27 10:51:00,
2013-07-27 06:53:00,66.4,64.6,30.00,WSW,239,0.0,7.0,94,0.00,,,0.00,VWS V14.01,2013-07-27 10:53:00,
2013-07-27 06:54:00,66.4,64.6,30.00,WSW,238,0.0,7.0,94,0.00,,,0.00,VWS V14.01,2013-07-27 10:54:00,
2013-07-27 06:56:00,66.6,64.8,30.00,WSW,238,1.0,7.0,94,0.00,,,0.00,VWS V14.01,2013-07-27 10:56:00,
2013-07-27 06:58:00,66.6,64.8,30.00,WSW,239,5.0,7.0,94,0.00,,,0.00,VWS V14.01,2013-07-27 10:58:00,
2013-07-27 06:59:00,66.8,65.0,30.00,WSW,238,3.0,7.0,94,0.00,,,0.00,VWS V14.01,2013-07-27 10:59:00,
2013-07-27 07:01:00,66.8,65.0,30.00,WSW,238,7.0,7.0,94,0.00,,,0.00,VWS V14.01,2013-07-27 11:01:00,
2013-07-27 07:04:00,66.9,65.1,30.00,WSW,238,0.0,7.0,94,0.00,,,0.00,VWS V14.01,2013-07-27 11:04:00,
2013-07-27 07:05:00,66.9,65.1,30.00,WSW,238,2.0,7.0,94,0.00,,,0.00,VWS V14.01,2013-07-27 11:05:00,
2013-07-27 07:06:00,67.1,65.3,30.00,WSW,238,3.0,6.0,94,0.00,,,0.00,VWS V14.01,2013-07-27 11:06:00,
2013-07-27 07:07:00,67.1,65.3,30.00,WSW,238,0.0,6.0,94,0.00,,,0.00,VWS V14.01,2013-07-27 11:07:00,
2013-07-27 07:12:00,67.3,65.5,30.00,WSW,238,3.0,7.0,94,0.00,,,0.00,VWS V14.01,2013-07-27 11:12:00,
2013-07-27 07:15:00,67.6,65.8,30.00,WSW,238,0.0,7.0,94,0.00,,,0.00,VWS V14.01,2013-07-27 11:15:00,
2013-07-27 07:16:00,67.6,65.8,30.00,WSW,238,0.0,7.0,94,0.00,,,0.00,VWS V14.01,2013-07-27 11:16:00,
2013-07-27 07:18:00,67.8,66.0,30.00,WSW,238,4.0,8.0,94,0.00,,,0.00,VWS V14.01,2013-07-27 11:18:00,
2013-07-27 07:19:00,67.8,66.0,30.01,WSW,238,1.0,8.0,94,0.00,,,0.00,VWS V14.01,2013-07-27 11:19:00,
2013-07-27 07:21:00,67.8,66.0,30.01,WSW,240,4.0,9.0,94,0.00,,,0.00,VWS V14.01,2013-07-27 11:21:00,
2013-07-27 07:22:00,67.9,66.1,30.01,WSW,238,6.0,9.0,94,0.00,,,0.00,VWS V14.01,2013-07-27 11:22:00,
2013-07-27 07:25:00,68.1,66.0,30.01,SW,236,7.0,9.0,93,0.00,,,0.00,VWS V14.01,2013-07-27 11:25:00,
2013-07-27 07:26:00,68.1,66.0,30.01,SW,236,3.0,9.0,93,0.00,,,0.00,VWS V14.01,2013-07-27 11:26:00,
2013-07-27 07:28:00,68.1,66.0,30.01,SW,236,3.0,9.0,93,0.00,,,0.00,VWS V14.01,2013-07-27 11:28:00,
2013-07-27 07:32:00,68.4,66.3,30.01,SW,231,0.0,9.0,93,0.00,,,0.00,VWS V14.01,2013-07-27 11:32:00,
2013-07-27 07:33:00,68.4,66.3,30.01,SW,236,3.0,9.0,93,0.00,,,0.00,VWS V14.01,2013-07-27 11:33:00,
2013-07-27 07:35:00,68.6,66.5,30.01,SW,236,4.0,9.0,93,0.00,,,0.00,VWS V14.01,2013-07-27 11:35:00,
2013-07-27 07:36:00,68.6,66.5,30.01,SW,236,0.0,0.0,93,0.00,,,0.00,VWS V14.01,2013-07-27 11:36:00,
2013-07-27 07:37:00,68.8,66.7,30.01,SW,236,4.0,8.0,93,0.00,,,0.00,VWS V14.01,2013-07-27 11:37:00,
2013-07-27 07:38:00,68.8,66.7,30.01,SW,236,2.0,8.0,93,0.00,,,0.00,VWS V14.01,2013-07-27 11:38:00,
2013-07-27 07:41:00,69.1,67.0,30.01,SW,236,6.0,8.0,93,0.00,,,0.00,VWS V14.01,2013-07-27 11:41:00,
2013-07-27 07:43:00,69.4,67.3,30.01,SW,230,7.0,9.0,93,0.00,,,0.00,VWS V14.01,2013-07-27 11:43:00,
2013-07-27 07:44:00,69.4,67.0,30.01,SW,230,0.0,9.0,92,0.00,,,0.00,VWS V14.01,2013-07-27 11:44:00,
2013-07-27 07:45:00,69.6,67.2,30.01,SW,230,0.0,9.0,92,0.00,,,0.00,VWS V14.01,2013-07-27 11:45:00,
2013-07-27 07:46:00,69.8,67.4,30.01,SW,230,0.0,9.0,92,0.00,,,0.00,VWS V14.01,2013-07-27 11:46:00,
2013-07-27 07:48:00,69.9,67.5,30.01,SW,230,0.0,9.0,92,0.00,,,0.00,VWS V14.01,2013-07-27 11:48:00,
2013-07-27 07:50:00,70.1,67.4,30.01,SW,231,5.0,9.0,91,0.00,,,0.00,VWS V14.01,2013-07-27 11:50:00,
2013-07-27 07:52:00,70.4,67.7,30.01,SW,231,6.0,9.0,91,0.00,,,0.00,VWS V14.01,2013-07-27 11:52:00,
2013-07-27 07:53:00,70.4,67.3,30.01,SW,231,4.0,9.0,90,0.00,,,0.00,VWS V14.01,2013-07-27 11:53:00,
2013-07-27 07:55:00,70.8,67.4,30.01,SW,231,0.0,9.0,89,0.00,,,0.00,VWS V14.01,2013-07-27 11:55:00,
2013-07-27 07:56:00,70.8,67.4,30.01,SW,231,0.0,9.0,89,0.00,,,0.00,VWS V14.01,2013-07-27 11:56:00,
2013-07-27 07:57:00,70.9,67.5,30.01,SW,231,2.0,9.0,89,0.00,,,0.00,VWS V14.01,2013-07-27 11:57:00,
2013-07-27 08:00:00,71.6,66.9,30.01,SW,231,3.0,9.0,85,0.00,,,0.00,VWS V14.01,2013-07-27 12:00:00,
2013-07-27 08:01:00,72.0,66.9,30.01,SW,231,0.0,9.0,84,0.00,,,0.00,VWS V14.01,2013-07-27 12:01:00,
2013-07-27 08:02:00,72.1,66.7,30.01,SW,231,4.0,9.0,83,0.00,,,0.00,VWS V14.01,2013-07-27 12:02:00,
2013-07-27 08:05:00,72.8,66.3,30.01,SW,232,5.0,9.0,80,0.00,,,0.00,VWS V14.01,2013-07-27 12:05:00,
2013-07-27 08:06:00,73.2,66.7,30.01,SW,231,4.0,7.0,80,0.00,,,0.00,VWS V14.01,2013-07-27 12:06:00,
2013-07-27 08:09:00,73.7,66.1,30.01,SW,232,0.0,7.0,77,0.00,,,0.00,VWS V14.01,2013-07-27 12:09:00,
2013-07-27 08:10:00,73.9,66.6,30.01,SW,215,6.0,7.0,78,0.00,,,0.00,VWS V14.01,2013-07-27 12:10:00,
2013-07-27 08:13:00,74.6,66.5,30.01,SSW,213,4.0,7.0,76,0.00,,,0.00,VWS V14.01,2013-07-27 12:13:00,
2013-07-27 08:16:00,75.1,67.4,30.01,SW,214,0.0,7.0,77,0.00,,,0.00,VWS V14.01,2013-07-27 12:16:00,
2013-07-27 08:17:00,75.3,67.2,30.01,SW,214,0.0,7.0,76,0.00,,,0.00,VWS V14.01,2013-07-27 12:17:00,
2013-07-27 08:20:00,75.8,66.9,30.01,SW,214,0.0,7.0,74,0.00,,,0.00,VWS V14.01,2013-07-27 12:20:00,
2013-07-27 08:21:00,76.0,67.5,30.01,SW,214,2.0,7.0,75,0.00,,,0.00,VWS V14.01,2013-07-27 12:21:00,
2013-07-27 08:22:00,76.1,66.8,30.01,SW,215,3.0,7.0,73,0.00,,,0.00,VWS V14.01,2013-07-27 12:22:00,
2013-07-27 08:25:00,76.1,66.4,30.01,SW,216,6.0,7.0,72,0.00,,,0.00,VWS V14.01,2013-07-27 12:25:00,
2013-07-27 08:27:00,76.5,66.8,30.01,SW,217,5.0,7.0,72,0.00,,,0.00,VWS V14.01,2013-07-27 12:27:00,
2013-07-27 08:28:00,76.5,66.8,30.01,SW,218,5.0,7.0,72,0.00,,,0.00,VWS V14.01,2013-07-27 12:28:00,
2013-07-27 08:31:00,76.5,66.4,30.01,SW,219,4.0,7.0,71,0.00,,,0.00,VWS V14.01,2013-07-27 12:31:00,
2013-07-27 08:32:00,76.5,66.4,30.01,SW,219,6.0,9.0,71,0.00,,,0.00,VWS V14.01,2013-07-27 12:32:00,
2013-07-27 08:33:00,76.5,66.8,30.01,SW,219,3.0,9.0,72,0.00,,,0.00,VWS V14.01,2013-07-27 12:33:00,
2013-07-27 08:34:00,76.5,66.8,30.01,SW,220,5.0,9.0,72,0.00,,,0.00,VWS V14.01,2013-07-27 12:34:00,
2013-07-27 08:35:00,76.5,67.2,30.01,SW,223,6.0,9.0,73,0.00,,,0.00,VWS V14.01,2013-07-27 12:35:00,
2013-07-27 08:38:00,76.7,66.6,30.01,SW,227,7.0,8.0,71,0.00,,,0.00,VWS V14.01,2013-07-27 12:38:00,
2013-07-27 08:39:00,76.8,66.7,30.01,SW,227,5.0,8.0,71,0.00,,,0.00,VWS V14.01,2013-07-27 12:39:00,
2013-07-27 08:40:00,77.0,66.5,30.01,SW,227,3.0,8.0,70,0.00,,,0.00,VWS V14.01,2013-07-27 12:40:00,
2013-07-27 08:42:00,77.2,67.1,30.01,SW,227,4.0,9.0,71,0.00,,,0.00,VWS V14.01,2013-07-27 12:42:00,
2013-07-27 08:44:00,77.4,66.9,30.01,SW,220,3.0,9.0,70,0.00,,,0.00,VWS V14.01,2013-07-27 12:44:00,
2013-07-27 08:45:00,77.4,66.9,30.01,SSW,211,7.0,9.0,70,0.00,,,0.00,VWS V14.01,2013-07-27 12:45:00,
2013-07-27 08:50:00,78.3,67.7,30.01,South,185,4.0,9.0,70,0.00,,,0.00,VWS V14.01,2013-07-27 12:50:00,
2013-07-27 08:53:00,78.3,66.9,30.01,SSW,200,0.0,10.0,68,0.00,,,0.00,VWS V14.01,2013-07-27 12:53:00,
2013-07-27 08:54:00,78.3,67.3,30.01,SSW,200,6.0,10.0,69,0.00,,,0.00,VWS V14.01,2013-07-27 12:54:00,
2013-07-27 08:56:00,78.1,66.7,30.01,SSW,202,3.0,10.0,68,0.00,,,0.00,VWS V14.01,2013-07-27 12:56:00,
2013-07-27 08:57:00,78.3,67.3,30.01,SSW,205,2.0,10.0,69,0.00,,,0.00,VWS V14.01,2013-07-27 12:57:00,
2013-07-27 08:59:00,78.3,66.9,30.01,SSW,209,0.0,10.0,68,0.00,,,0.00,VWS V14.01,2013-07-27 12:59:00,
2013-07-27 09:02:00,78.6,66.7,30.01,SSW,209,0.0,10.0,67,0.00,,,0.00,VWS V14.01,2013-07-27 13:02:00,
2013-07-27 09:03:00,78.8,67.4,30.01,SW,236,5.0,10.0,68,0.00,,,0.00,VWS V14.01,2013-07-27 13:03:00,
2013-07-27 09:05:00,78.8,66.5,30.02,SW,236,0.0,10.0,66,0.00,,,0.00,VWS V14.01,2013-07-27 13:05:00,
2013-07-27 09:06:00,79.0,67.6,30.02,SW,236,3.0,7.0,68,0.00,,,0.00,VWS V14.01,2013-07-27 13:06:00,
2013-07-27 09:09:00,79.2,66.9,30.02,SW,236,0.0,7.0,66,0.00,,,0.00,VWS V14.01,2013-07-27 13:09:00,
2013-07-27 09:12:00,79.6,67.2,30.02,South,184,0.0,7.0,66,0.00,,,0.00,VWS V14.01,2013-07-27 13:12:00,
2013-07-27 09:13:00,79.6,67.7,30.02,SSE,164,6.0,7.0,67,0.00,,,0.00,VWS V14.01,2013-07-27 13:13:00,
2013-07-27 09:14:00,79.6,67.2,30.02,SSE,156,7.0,7.0,66,0.00,,,0.00,VWS V14.01,2013-07-27 13:14:00,
2013-07-27 09:15:00,79.6,67.7,30.02,SSE,156,2.0,8.0,67,0.00,,,0.00,VWS V14.01,2013-07-27 13:15:00,
2013-07-27 09:19:00,78.8,67.4,30.02,SSE,150,2.0,8.0,68,0.00,,,0.00,VWS V14.01,2013-07-27 13:19:00,
2013-07-27 09:20:00,78.6,67.2,30.02,SSE,153,4.0,8.0,68,0.00,,,0.00,VWS V14.01,2013-07-27 13:20:00,
2013-07-27 09:22:00,78.1,67.1,30.02,SE,142,0.0,8.0,69,0.00,,,0.00,VWS V14.01,2013-07-27 13:22:00,
2013-07-27 09:25:00,77.7,67.6,30.02,SE,138,2.0,8.0,71,0.00,,,0.00,VWS V14.01,2013-07-27 13:25:00,
2013-07-27 09:26:00,77.6,67.9,30.02,SE,135,6.0,8.0,72,0.00,,,0.00,VWS V14.01,2013-07-27 13:26:00,
2013-07-27 09:27:00,77.4,67.7,30.02,SE,136,2.0,8.0,72,0.00,,,0.00,VWS V14.01,2013-07-27 13:27:00,
2013-07-27 09:32:00,77.6,69.4,30.02,SE,137,4.0,9.0,76,0.00,,,0.00,VWS V14.01,2013-07-27 13:32:00,
2013-07-27 09:33:00,77.6,69.1,30.02,SE,140,7.0,9.0,75,0.00,,,0.00,VWS V14.01,2013-07-27 13:33:00,
2013-07-27 09:34:00,77.6,69.1,30.02,SE,139,6.0,9.0,75,0.00,,,0.00,VWS V14.01,2013-07-27 13:34:00,
2013-07-27 09:35:00,77.6,68.7,30.02,SE,141,6.0,9.0,74,0.00,,,0.00,VWS V14.01,2013-07-27 13:35:00,
2013-07-27 09:38:00,77.7,68.4,30.02,SSE,149,5.0,11.0,73,0.00,,,0.00,VWS V14.01,2013-07-27 13:38:00,
2013-07-27 09:39:00,77.6,68.3,30.02,SE,139,2.0,11.0,73,0.00,,,0.00,VWS V14.01,2013-07-27 13:39:00,
2013-07-27 09:40:00,77.9,69.3,30.02,SE,142,1.0,11.0,75,0.00,,,0.00,VWS V14.01,2013-07-27 13:40:00,
2013-07-27 09:41:00,78.1,69.1,30.02,SE,133,5.0,11.0,74,0.00,,,0.00,VWS V14.01,2013-07-27 13:41:00,
2013-07-27 09:42:00,78.3,69.3,30.02,SSE,161,6.0,11.0,74,0.00,,,0.00,VWS V14.01,2013-07-27 13:42:00,
2013-07-27 09:44:00,77.9,68.2,30.02,SSE,154,4.0,11.0,72,0.00,,,0.00,VWS V14.01,2013-07-27 13:44:00,
2013-07-27 09:46:00,77.9,68.6,30.02,SSE,157,2.0,11.0,73,0.00,,,0.00,VWS V14.01,2013-07-27 13:46:00,
2013-07-27 09:47:00,77.9,68.9,30.02,SSE,165,6.0,11.0,74,0.00,,,0.00,VWS V14.01,2013-07-27 13:47:00,
2013-07-27 09:49:00,78.1,69.1,30.02,SE,139,0.0,11.0,74,0.00,,,0.00,VWS V14.01,2013-07-27 13:49:00,
2013-07-27 09:51:00,78.3,68.9,30.02,SSE,165,4.0,11.0,73,0.00,,,0.00,VWS V14.01,2013-07-27 13:51:00,
2013-07-27 09:53:00,78.3,68.5,30.02,SSE,159,6.0,11.0,72,0.00,,,0.00,VWS V14.01,2013-07-27 13:53:00,
2013-07-27 09:54:00,78.3,68.5,30.02,SE,132,8.0,11.0,72,0.00,,,0.00,VWS V14.01,2013-07-27 13:54:00,
2013-07-27 09:55:00,78.3,68.5,30.02,SSE,153,5.0,11.0,72,0.00,,,0.00,VWS V14.01,2013-07-27 13:55:00,
2013-07-27 09:58:00,78.6,69.2,30.02,SE,141,4.0,11.0,73,0.00,,,0.00,VWS V14.01,2013-07-27 13:58:00,
2013-07-27 09:59:00,78.8,69.8,30.02,SE,140,5.0,11.0,74,0.00,,,0.00,VWS V14.01,2013-07-27 13:59:00,
2013-07-27 10:00:00,78.8,69.0,30.02,SE,142,5.0,11.0,72,0.00,,,0.00,VWS V14.01,2013-07-27 14:00:00,
2013-07-27 10:02:00,79.2,69.8,30.02,SE,143,4.0,11.0,73,0.00,,,0.00,VWS V14.01,2013-07-27 14:02:00,
2013-07-27 10:03:00,79.4,70.0,30.02,SSE,148,5.0,11.0,73,0.00,,,0.00,VWS V14.01,2013-07-27 14:03:00,
2013-07-27 10:05:00,79.4,69.2,30.02,SSE,168,6.0,11.0,71,0.00,,,0.00,VWS V14.01,2013-07-27 14:05:00,
2013-07-27 10:07:00,79.6,70.2,30.02,SE,137,4.0,8.0,73,0.00,,,0.00,VWS V14.01,2013-07-27 14:07:00,
2013-07-27 10:12:00,79.4,69.6,30.02,SE,144,7.0,11.0,72,0.00,,,0.00,VWS V14.01,2013-07-27 14:12:00,
2013-07-27 10:14:00,79.4,69.6,30.02,SE,145,4.0,11.0,72,0.00,,,0.00,VWS V14.01,2013-07-27 14:14:00,
2013-07-27 10:15:00,79.4,69.2,30.02,SSE,161,7.0,11.0,71,0.00,,,0.00,VWS V14.01,2013-07-27 14:15:00,
2013-07-27 10:16:00,79.4,69.2,30.02,SSE,162,5.0,11.0,71,0.00,,,0.00,VWS V14.01,2013-07-27 14:16:00,
2013-07-27 10:20:00,78.8,68.2,30.02,SSE,158,8.0,12.0,70,0.00,,,0.00,VWS V14.01,2013-07-27 14:20:00,
2013-07-27 10:21:00,78.6,68.4,30.02,SSE,160,5.0,12.0,71,0.00,,,0.00,VWS V14.01,2013-07-27 14:21:00,
2013-07-27 10:23:00,78.3,68.5,30.02,SSE,148,6.0,12.0,72,0.00,,,0.00,VWS V14.01,2013-07-27 14:23:00,
2013-07-27 10:24:00,78.3,68.5,30.02,SE,142,0.0,12.0,72,0.00,,,0.00,VWS V14.01,2013-07-27 14:24:00,
2013-07-27 10:26:00,78.6,69.6,30.02,SE,144,6.0,12.0,74,0.00,,,0.00,VWS V14.01,2013-07-27 14:26:00,
2013-07-27 10:27:00,79.0,69.2,30.02,SE,130,7.0,12.0,72,0.00,,,0.00,VWS V14.01,2013-07-27 14:27:00,
2013-07-27 10:28:00,79.2,69.4,30.02,South,178,9.0,12.0,72,0.00,,,0.00,VWS V14.01,2013-07-27 14:28:00,
2013-07-27 10:29:00,79.0,68.4,30.02,SSE,161,5.0,12.0,70,0.00,,,0.00,VWS V14.01,2013-07-27 14:29:00,
2013-07-27 10:30:00,78.8,67.8,30.02,SSE,159,6.0,12.0,69,0.00,,,0.00,VWS V14.01,2013-07-27 14:30:00,
2013-07-27 10:33:00,78.8,69.4,30.02,SE,144,12.0,12.0,73,0.00,,,0.00,VWS V14.01,2013-07-27 14:33:00,
2013-07-27 10:35:00,78.8,68.6,30.02,SSE,159,4.0,12.0,71,0.00,,,0.00,VWS V14.01,2013-07-27 14:35:00,
2013-07-27 10:36:00,78.6,68.4,30.02,SSE,164,5.0,11.0,71,0.00,,,0.00,VWS V14.01,2013-07-27 14:36:00,
2013-07-27 10:40:00,78.1,69.1,30.02,SSE,161,5.0,11.0,74,0.00,,,0.00,VWS V14.01,2013-07-27 14:40:00,
2013-07-27 10:41:00,78.3,69.7,30.02,SE,144,2.0,11.0,75,0.00,,,0.00,VWS V14.01,2013-07-27 14:41:00,
2013-07-27 10:42:00,78.5,69.9,30.02,SSE,150,6.0,11.0,75,0.00,,,0.00,VWS V14.01,2013-07-27 14:42:00,
2013-07-27 10:43:00,78.8,70.2,30.02,SSE,147,6.0,11.0,75,0.00,,,0.00,VWS V14.01,2013-07-27 14:43:00,
2013-07-27 10:44:00,79.0,69.2,30.02,SSE,163,8.0,11.0,72,0.00,,,0.00,VWS V14.01,2013-07-27 14:44:00,
2013-07-27 10:46:00,79.0,68.8,30.02,SSE,160,4.0,11.0,71,0.00,,,0.00,VWS V14.01,2013-07-27 14:46:00,
2013-07-27 10:48:00,78.8,69.0,30.02,SSE,152,0.0,11.0,72,0.00,,,0.00,VWS V14.01,2013-07-27 14:48:00,
2013-07-27 10:50:00,79.0,70.4,30.02,South,190,0.0,11.0,75,0.00,,,0.00,VWS V14.01,2013-07-27 14:50:00,
2013-07-27 10:53:00,78.8,69.0,30.02,SSE,158,4.0,11.0,72,0.00,,,0.00,VWS V14.01,2013-07-27 14:53:00,
2013-07-27 10:55:00,79.0,70.0,30.02,SSE,148,0.0,11.0,74,0.00,,,0.00,VWS V14.01,2013-07-27 14:55:00,
2013-07-27 10:57:00,79.0,70.0,30.02,SSE,154,4.0,11.0,74,0.00,,,0.00,VWS V14.01,2013-07-27 14:57:00,
2013-07-27 10:58:00,79.2,70.6,30.02,SSE,154,0.0,11.0,75,0.00,,,0.00,VWS V14.01,2013-07-27 14:58:00,
2013-07-27 11:00:00,79.2,70.2,30.02,SSE,150,1.0,11.0,74,0.00,,,0.00,VWS V14.01,2013-07-27 15:00:00,
2013-07-27 11:03:00,79.2,69.4,30.02,SSE,164,7.0,12.0,72,0.00,,,0.00,VWS V14.01,2013-07-27 15:03:00,
2013-07-27 11:04:00,79.2,69.8,30.02,South,170,7.0,12.0,73,0.00,,,0.00,VWS V14.01,2013-07-27 15:04:00,
2013-07-27 11:05:00,79.0,69.6,30.02,SSE,163,2.0,12.0,73,0.00,,,0.00,VWS V14.01,2013-07-27 15:05:00,
2013-07-27 11:08:00,78.6,69.2,30.02,SE,145,1.0,10.0,73,0.00,,,0.00,VWS V14.01,2013-07-27 15:08:00,
2013-07-27 11:09:00,78.5,69.5,30.02,SSW,192,6.0,10.0,74,0.00,,,0.00,VWS V14.01,2013-07-27 15:09:00,
2013-07-27 11:10:00,78.3,69.3,30.02,SSE,153,4.0,10.0,74,0.00,,,0.00,VWS V14.01,2013-07-27 15:10:00,
2013-07-27 11:15:00,77.9,69.3,30.02,SSE,150,6.0,10.0,75,0.00,,,0.00,VWS V14.01,2013-07-27 15:15:00,
2013-07-27 11:18:00,77.6,69.1,30.02,SSE,151,7.0,10.0,75,0.00,,,0.00,VWS V14.01,2013-07-27 15:18:00,
2013-07-27 11:19:00,77.4,69.2,30.02,SSE,168,5.0,10.0,76,0.00,,,0.00,VWS V14.01,2013-07-27 15:19:00,
2013-07-27 11:20:00,77.4,69.2,30.02,SSE,163,6.0,10.0,76,0.00,,,0.00,VWS V14.01,2013-07-27 15:20:00,
2013-07-27 11:22:00,77.4,69.6,30.02,SSE,163,6.0,11.0,77,0.00,,,0.00,VWS V14.01,2013-07-27 15:22:00,
2013-07-27 11:24:00,77.9,70.1,30.02,SSE,150,7.0,11.0,77,0.00,,,0.00,VWS V14.01,2013-07-27 15:24:00,
2013-07-27 11:26:00,78.6,70.8,30.02,SSE,164,6.0,13.0,77,0.00,,,0.00,VWS V14.01,2013-07-27 15:26:00,
2013-07-27 11:27:00,78.8,70.2,30.02,South,169,6.0,13.0,75,0.00,,,0.00,VWS V14.01,2013-07-27 15:27:00,
2013-07-27 11:29:00,79.4,69.6,30.02,SSE,159,6.0,13.0,72,0.00,,,0.00,VWS V14.01,2013-07-27 15:29:00,
2013-07-27 11:30:00,79.4,69.2,30.02,SE,145,5.0,13.0,71,0.00,,,0.00,VWS V14.01,2013-07-27 15:30:00,
2013-07-27 11:35:00,79.4,69.6,30.02,SE,132,9.0,13.0,72,0.00,,,0.00,VWS V14.01,2013-07-27 15:35:00,
2013-07-27 11:38:00,79.0,70.0,30.02,SSE,157,8.0,11.0,74,0.00,,,0.00,VWS V14.01,2013-07-27 15:38:00,
2013-07-27 11:39:00,79.0,69.6,30.02,SSE,157,5.0,11.0,73,0.00,,,0.00,VWS V14.01,2013-07-27 15:39:00,
2013-07-27 11:40:00,78.8,69.8,30.02,SSE,151,8.0,11.0,74,0.00,,,0.00,VWS V14.01,2013-07-27 15:40:00,
2013-07-27 11:42:00,78.8,70.2,30.02,SSE,161,6.0,11.0,75,0.00,,,0.00,VWS V14.01,2013-07-27 15:42:00,
2013-07-27 11:43:00,78.8,69.8,30.02,SE,140,5.0,11.0,74,0.00,,,0.00,VWS V14.01,2013-07-27 15:43:00,
2013-07-27 11:44:00,78.6,70.0,30.02,SSE,149,6.0,11.0,75,0.00,,,0.00,VWS V14.01,2013-07-27 15:44:00,
2013-07-27 11:45:00,78.6,70.0,30.02,South,179,5.0,11.0,75,0.00,,,0.00,VWS V14.01,2013-07-27 15:45:00,
2013-07-27 11:46:00,78.6,70.0,30.02,South,178,2.0,11.0,75,0.00,,,0.00,VWS V14.01,2013-07-27 15:46:00,
2013-07-27 11:48:00,78.6,70.4,30.02,SSE,161,7.0,11.0,76,0.00,,,0.00,VWS V14.01,2013-07-27 15:48:00,
2013-07-27 11:50:00,78.5,70.3,30.02,SE,136,6.0,11.0,76,0.00,,,0.00,VWS V14.01,2013-07-27 15:50:00,
2013-07-27 11:51:00,78.6,70.4,30.02,SSE,152,5.0,11.0,76,0.00,,,0.00,VWS V14.01,2013-07-27 15:51:00,
2013-07-27 11:53:00,78.5,70.7,30.02,SSE,158,7.0,11.0,77,0.00,,,0.00,VWS V14.01,2013-07-27 15:53:00,
2013-07-27 11:54:00,78.5,70.7,30.02,SSE,148,6.0,11.0,77,0.00,,,0.00,VWS V14.01,2013-07-27 15:54:00,
2013-07-27 11:56:00,78.3,70.1,30.02,SE,146,6.0,11.0,76,0.00,,,0.00,VWS V14.01,2013-07-27 15:56:00,
2013-07-27 11:57:00,78.3,70.1,30.02,SSE,160,5.0,11.0,76,0.00,,,0.00,VWS V14.01,2013-07-27 15:57:00,
2013-07-27 11:59:00,78.1,69.5,30.02,SSE,155,7.0,13.0,75,0.00,,,0.00,VWS V14.01,2013-07-27 15:59:00,
2013-07-27 12:01:00,78.3,70.5,30.02,SSE,162,5.0,13.0,77,0.00,,,0.00,VWS V14.01,2013-07-27 16:01:00,
2013-07-27 12:02:00,78.3,70.9,30.02,SSE,153,7.0,13.0,78,0.00,,,0.00,VWS V14.01,2013-07-27 16:02:00,
2013-07-27 12:04:00,78.6,70.4,30.02,SSE,160,4.0,13.0,76,0.00,,,0.00,VWS V14.01,2013-07-27 16:04:00,
2013-07-27 12:05:00,78.5,69.9,30.02,SSE,155,10.0,13.0,75,0.00,,,0.00,VWS V14.01,2013-07-27 16:05:00,
2013-07-27 12:09:00,79.0,70.8,30.02,SE,142,5.0,13.0,76,0.00,,,0.00,VWS V14.01,2013-07-27 16:09:00,
2013-07-27 12:10:00,79.0,70.4,30.02,SE,146,5.0,13.0,75,0.00,,,0.00,VWS V14.01,2013-07-27 16:10:00,
2013-07-27 12:11:00,79.0,70.8,30.02,SSE,162,8.0,13.0,76,0.00,,,0.00,VWS V14.01,2013-07-27 16:11:00,
2013-07-27 12:12:00,78.8,70.2,30.02,SSE,158,6.0,13.0,75,0.00,,,0.00,VWS V14.01,2013-07-27 16:12:00,
2013-07-27 12:16:00,78.8,71.4,30.02,SSE,167,5.0,13.0,78,0.00,,,0.00,VWS V14.01,2013-07-27 16:16:00,
2013-07-27 12:18:00,79.0,71.6,30.02,SSE,154,8.0,13.0,78,0.00,,,0.00,VWS V14.01,2013-07-27 16:18:00,
2013-07-27 12:19:00,78.8,70.6,30.02,SSE,168,7.0,13.0,76,0.00,,,0.00,VWS V14.01,2013-07-27 16:19:00,
2013-07-27 12:21:00,78.6,70.8,30.02,SSE,163,8.0,13.0,77,0.00,,,0.00,VWS V14.01,2013-07-27 16:21:00,
2013-07-27 12:22:00,78.5,70.3,30.02,South,170,8.0,13.0,76,0.00,,,0.00,VWS V14.01,2013-07-27 16:22:00,
2013-07-27 12:24:00,78.3,71.3,30.02,SE,134,5.0,13.0,79,0.00,,,0.00,VWS V14.01,2013-07-27 16:24:00,
2013-07-27 12:27:00,78.3,70.9,30.02,South,171,8.0,13.0,78,0.00,,,0.00,VWS V14.01,2013-07-27 16:27:00,
2013-07-27 12:30:00,78.3,70.5,30.02,South,178,9.0,13.0,77,0.00,,,0.00,VWS V14.01,2013-07-27 16:30:00,
2013-07-27 12:32:00,78.1,70.3,30.02,SSE,165,7.0,13.0,77,0.00,,,0.00,VWS V14.01,2013-07-27 16:32:00,
2013-07-27 12:33:00,78.1,70.7,30.02,SSE,165,9.0,13.0,78,0.00,,,0.00,VWS V14.01,2013-07-27 16:33:00,
2013-07-27 12:34:00,78.1,70.7,30.01,South,180,4.0,13.0,78,0.00,,,0.00,VWS V14.01,2013-07-27 16:34:00,
2013-07-27 12:36:00,78.1,70.7,30.01,South,169,7.0,9.0,78,0.00,,,0.00,VWS V14.01,2013-07-27 16:36:00,
2013-07-27 12:38:00,78.3,71.3,30.01,South,181,7.0,10.0,79,0.00,,,0.00,VWS V14.01,2013-07-27 16:38:00,
2013-07-27 12:39:00,78.5,71.1,30.01,SSE,161,10.0,12.0,78,0.00,,,0.00,VWS V14.01,2013-07-27 16:39:00,
2013-07-27 12:42:00,78.5,70.3,30.01,South,182,9.0,14.0,76,0.00,,,0.00,VWS V14.01,2013-07-27 16:42:00,
2013-07-27 12:43:00,78.3,70.5,30.01,South,174,10.0,14.0,77,0.00,,,0.00,VWS V14.01,2013-07-27 16:43:00,
2013-07-27 12:44:00,78.3,70.5,30.01,SSE,163,8.0,14.0,77,0.00,,,0.00,VWS V14.01,2013-07-27 16:44:00,
2013-07-27 12:45:00,78.3,70.1,30.01,SSE,155,8.0,14.0,76,0.00,,,0.00,VWS V14.01,2013-07-27 16:45:00,
2013-07-27 12:48:00,78.1,69.9,30.01,SSE,162,8.0,14.0,76,0.00,,,0.00,VWS V14.01,2013-07-27 16:48:00,
2013-07-27 12:49:00,78.1,69.9,30.01,SSE,168,9.0,14.0,76,0.00,,,0.00,VWS V14.01,2013-07-27 16:49:00,
2013-07-27 12:50:00,78.1,70.3,30.01,SE,144,7.0,14.0,77,0.00,,,0.00,VWS V14.01,2013-07-27 16:50:00,
2013-07-27 12:55:00,78.6,70.8,30.01,SSE,160,8.0,14.0,77,0.00,,,0.00,VWS V14.01,2013-07-27 16:55:00,
2013-07-27 12:56:00,78.6,70.8,30.01,SSE,163,7.0,14.0,77,0.00,,,0.00,VWS V14.01,2013-07-27 16:56:00,
2013-07-27 12:58:00,78.6,70.0,30.01,SSE,155,9.0,14.0,75,0.00,,,0.00,VWS V14.01,2013-07-27 16:58:00,
2013-07-27 13:01:00,78.6,70.8,30.01,SSE,160,9.0,14.0,77,0.00,,,0.00,VWS V14.01,2013-07-27 17:01:00,
2013-07-27 13:03:00,78.8,70.6,30.01,SSE,157,9.0,15.0,76,0.00,,,0.00,VWS V14.01,2013-07-27 17:03:00,
2013-07-27 13:04:00,78.8,70.2,30.01,SSE,149,9.0,15.0,75,0.00,,,0.00,VWS V14.01,2013-07-27 17:04:00,
2013-07-27 13:05:00,78.8,70.6,30.01,SSE,153,5.0,15.0,76,0.00,,,0.00,VWS V14.01,2013-07-27 17:05:00,
2013-07-27 13:08:00,79.4,71.2,30.01,SSE,151,5.0,10.0,76,0.00,,,0.00,VWS V14.01,2013-07-27 17:08:00,
2013-07-27 13:09:00,79.6,71.0,30.01,SE,146,10.0,12.0,75,0.00,,,0.00,VWS V14.01,2013-07-27 17:09:00,
2013-07-27 13:11:00,79.6,71.0,30.01,SSE,167,7.0,13.0,75,0.00,,,0.00,VWS V14.01,2013-07-27 17:11:00,
2013-07-27 13:12:00,79.6,70.6,30.01,SSE,164,8.0,13.0,74,0.00,,,0.00,VWS V14.01,2013-07-27 17:12:00,
2013-07-27 13:13:00,79.6,70.6,30.01,South,184,7.0,13.0,74,0.00,,,0.00,VWS V14.01,2013-07-27 17:13:00,
2013-07-27 13:14:00,79.4,70.4,30.01,South,178,7.0,13.0,74,0.00,,,0.00,VWS V14.01,2013-07-27 17:14:00,
2013-07-27 13:16:00,79.2,70.2,30.01,SE,138,8.0,13.0,74,0.00,,,0.00,VWS V14.01,2013-07-27 17:16:00,
2013-07-27 13:17:00,79.2,70.2,30.01,SSE,160,8.0,13.0,74,0.00,,,0.00,VWS V14.01,2013-07-27 17:17:00,
2013-07-27 13:18:00,78.8,69.8,30.01,SSE,167,6.0,14.0,74,0.00,,,0.00,VWS V14.01,2013-07-27 17:18:00,
2013-07-27 13:20:00,78.6,70.4,30.00,SSE,166,7.0,14.0,76,0.00,,,0.00,VWS V14.01,2013-07-27 17:20:00,
2013-07-27 13:22:00,78.5,70.7,30.00,SSE,167,8.0,14.0,77,0.00,,,0.00,VWS V14.01,2013-07-27 17:22:00,
2013-07-27 13:23:00,78.3,70.1,30.00,SSE,153,8.0,14.0,76,0.00,,,0.00,VWS V14.01,2013-07-27 17:23:00,
2013-07-27 13:24:00,78.3,70.5,30.00,SSE,157,6.0,14.0,77,0.00,,,0.00,VWS V14.01,2013-07-27 17:24:00,
2013-07-27 13:26:00,78.6,70.8,30.00,SSE,156,10.0,14.0,77,0.00,,,0.00,VWS V14.01,2013-07-27 17:26:00,
2013-07-27 13:29:00,78.6,70.8,30.00,SSE,147,7.0,14.0,77,0.00,,,0.00,VWS V14.01,2013-07-27 17:29:00,
2013-07-27 13:30:00,78.8,71.0,30.00,ESE,123,13.0,14.0,77,0.00,,,0.00,VWS V14.01,2013-07-27 17:30:00,
2013-07-27 13:31:00,78.8,70.6,30.00,SE,136,11.0,14.0,76,0.00,,,0.00,VWS V14.01,2013-07-27 17:31:00,
2013-07-27 13:32:00,79.2,71.0,30.00,SSW,200,5.0,14.0,76,0.00,,,0.00,VWS V14.01,2013-07-27 17:32:00,
2013-07-27 13:34:00,79.6,70.2,30.00,SE,138,10.0,14.0,73,0.00,,,0.00,VWS V14.01,2013-07-27 17:34:00,
2013-07-27 13:35:00,79.6,70.2,30.00,SSE,157,7.0,14.0,73,0.00,,,0.00,VWS V14.01,2013-07-27 17:35:00,
2013-07-27 13:36:00,79.6,70.2,30.00,SSE,157,7.0,10.0,73,0.00,,,0.00,VWS V14.01,2013-07-27 17:36:00,
2013-07-27 13:37:00,79.6,69.8,30.00,SSE,161,4.0,10.0,72,0.00,,,0.00,VWS V14.01,2013-07-27 17:37:00,
2013-07-27 13:41:00,79.9,70.1,30.00,SE,137,6.0,11.0,72,0.00,,,0.00,VWS V14.01,2013-07-27 17:41:00,
2013-07-27 13:42:00,79.9,70.5,30.00,SSE,155,8.0,13.0,73,0.00,,,0.00,VWS V14.01,2013-07-27 17:42:00,
2013-07-27 13:43:00,80.1,70.3,30.00,South,175,5.0,13.0,72,0.00,,,0.00,VWS V14.01,2013-07-27 17:43:00,
2013-07-27 13:44:00,80.3,70.9,30.00,SSE,147,8.0,13.0,73,0.00,,,0.00,VWS V14.01,2013-07-27 17:44:00,
2013-07-27 13:47:00,80.9,71.0,30.00,SE,140,6.0,13.0,72,0.00,,,0.00,VWS V14.01,2013-07-27 17:47:00,
2013-07-27 13:48:00,81.1,71.2,30.00,SE,146,12.0,13.0,72,0.00,,,0.00,VWS V14.01,2013-07-27 17:48:00,
2013-07-27 13:50:00,81.1,70.0,29.99,SSE,167,7.0,13.0,69,0.00,,,0.00,VWS V14.01,2013-07-27 17:50:00,
2013-07-27 13:51:00,81.1,70.4,29.99,South,180,5.0,13.0,70,0.00,,,0.00,VWS V14.01,2013-07-27 17:51:00,
2013-07-27 13:53:00,80.7,70.0,29.99,South,175,7.0,13.0,70,0.00,,,0.00,VWS V14.01,2013-07-27 17:53:00,
2013-07-27 13:54:00,80.3,70.1,29.99,SSE,155,6.0,13.0,71,0.00,,,0.00,VWS V14.01,2013-07-27 17:54:00,
2013-07-27 13:55:00,80.1,70.3,29.99,SSE,159,6.0,13.0,72,0.00,,,0.00,VWS V14.01,2013-07-27 17:55:00,
2013-07-27 13:56:00,79.9,70.1,29.99,SSW,194,6.0,13.0,72,0.00,,,0.00,VWS V14.01,2013-07-27 17:56:00,
2013-07-27 13:58:00,80.1,71.1,29.99,South,175,6.0,13.0,74,0.00,,,0.00,VWS V14.01,2013-07-27 17:58:00,
2013-07-27 14:00:00,79.9,70.1,29.99,South,173,7.0,13.0,72,0.00,,,0.00,VWS V14.01,2013-07-27 18:00:00,
2013-07-27 14:02:00,79.9,70.1,29.99,South,171,5.0,13.0,72,0.00,,,0.00,VWS V14.01,2013-07-27 18:02:00,
2013-07-27 14:04:00,79.9,70.5,29.99,SE,142,6.0,13.0,73,0.00,,,0.00,VWS V14.01,2013-07-27 18:04:00,
2013-07-27 14:05:00,79.8,70.0,29.99,South,169,5.0,13.0,72,0.00,,,0.00,VWS V14.01,2013-07-27 18:05:00,
2013-07-27 14:06:00,79.8,70.0,29.99,SSE,157,8.0,14.0,72,0.00,,,0.00,VWS V14.01,2013-07-27 18:06:00,
2013-07-27 14:10:00,79.2,69.8,29.99,SSE,166,8.0,14.0,73,0.00,,,0.00,VWS V14.01,2013-07-27 18:10:00,
2013-07-27 14:11:00,79.0,69.6,29.99,South,173,4.0,14.0,73,0.00,,,0.00,VWS V14.01,2013-07-27 18:11:00,
2013-07-27 14:16:00,78.8,70.2,29.99,SSE,168,10.0,14.0,75,0.00,,,0.00,VWS V14.01,2013-07-27 18:16:00,
2013-07-27 14:17:00,78.6,69.6,29.99,SSE,163,10.0,14.0,74,0.00,,,0.00,VWS V14.01,2013-07-27 18:17:00,
2013-07-27 14:19:00,78.5,69.9,29.99,South,183,9.0,14.0,75,0.00,,,0.00,VWS V14.01,2013-07-27 18:19:00,
2013-07-27 14:20:00,78.5,69.9,29.99,SSE,164,8.0,14.0,75,0.00,,,0.00,VWS V14.01,2013-07-27 18:20:00,
2013-07-27 14:22:00,78.3,69.3,29.99,South,183,11.0,14.0,74,0.00,,,0.00,VWS V14.01,2013-07-27 18:22:00,
2013-07-27 14:23:00,78.3,69.7,29.99,SSE,157,7.0,14.0,75,0.00,,,0.00,VWS V14.01,2013-07-27 18:23:00,
2013-07-27 14:24:00,78.1,69.5,29.99,SE,141,11.0,14.0,75,0.00,,,0.00,VWS V14.01,2013-07-27 18:24:00,
2013-07-27 14:25:00,78.3,70.1,29.99,SSE,155,8.0,14.0,76,0.00,,,0.00,VWS V14.01,2013-07-27 18:25:00,
2013-07-27 14:28:00,78.3,70.1,29.99,SSE,155,6.0,14.0,76,0.00,,,0.00,VWS V14.01,2013-07-27 18:28:00,
2013-07-27 14:29:00,78.3,70.1,29.99,SE,144,7.0,14.0,76,0.00,,,0.00,VWS V14.01,2013-07-27 18:29:00,
2013-07-27 14:32:00,78.5,70.3,29.99,SSW,193,6.0,14.0,76,0.00,,,0.00,VWS V14.01,2013-07-27 18:32:00,
2013-07-27 14:33:00,78.6,70.4,29.99,SSE,155,9.0,14.0,76,0.00,,,0.00,VWS V14.01,2013-07-27 18:33:00,
2013-07-27 14:35:00,78.8,70.6,29.99,SSE,167,7.0,14.0,76,0.00,,,0.00,VWS V14.01,2013-07-27 18:35:00,
2013-07-27 14:37:00,78.8,69.8,29.99,SSE,150,6.0,11.0,74,0.00,,,0.00,VWS V14.01,2013-07-27 18:37:00,
2013-07-27 14:38:00,78.8,69.8,29.99,SSE,150,8.0,11.0,74,0.00,,,0.00,VWS V14.01,2013-07-27 18:38:00,
2013-07-27 14:40:00,79.0,70.4,29.99,SSE,161,7.0,11.0,75,0.00,,,0.00,VWS V14.01,2013-07-27 18:40:00,
2013-07-27 14:41:00,79.2,70.6,29.99,SSE,150,10.0,12.0,75,0.00,,,0.00,VWS V14.01,2013-07-27 18:41:00,
2013-07-27 14:43:00,79.2,70.2,29.99,SE,137,9.0,12.0,74,0.00,,,0.00,VWS V14.01,2013-07-27 18:43:00,
2013-07-27 14:44:00,79.4,70.8,29.99,SSE,155,8.0,12.0,75,0.00,,,0.00,VWS V14.01,2013-07-27 18:44:00,
2013-07-27 14:46:00,79.4,70.0,29.99,SSE,157,8.0,13.0,73,0.00,,,0.00,VWS V14.01,2013-07-27 18:46:00,
2013-07-27 14:48:00,79.2,69.8,29.99,SE,145,6.0,13.0,73,0.00,,,0.00,VWS V14.01,2013-07-27 18:48:00,
2013-07-27 14:49:00,79.4,70.4,29.98,SSE,155,5.0,13.0,74,0.00,,,0.00,VWS V14.01,2013-07-27 18:49:00,
2013-07-27 14:51:00,79.4,70.0,29.98,SSE,148,6.0,13.0,73,0.00,,,0.00,VWS V14.01,2013-07-27 18:51:00,
2013-07-27 14:54:00,79.4,70.0,29.98,SSE,153,11.0,13.0,73,0.00,,,0.00,VWS V14.01,2013-07-27 18:54:00,
2013-07-27 14:56:00,79.4,69.6,29.98,SSE,161,6.0,13.0,72,0.00,,,0.00,VWS V14.01,2013-07-27 18:56:00,
2013-07-27 14:57:00,79.4,70.0,29.98,South,171,8.0,13.0,73,0.00,,,0.00,VWS V14.01,2013-07-27 18:57:00,
2013-07-27 14:58:00,79.4,70.4,29.98,South,175,10.0,13.0,74,0.00,,,0.00,VWS V14.01,2013-07-27 18:58:00,
2013-07-27 14:59:00,79.4,70.0,29.98,South,173,6.0,13.0,73,0.00,,,0.00,VWS V14.01,2013-07-27 18:59:00,
2013-07-27 15:02:00,79.4,70.0,29.98,SSE,165,5.0,13.0,73,0.00,,,0.00,VWS V14.01,2013-07-27 19:02:00,
2013-07-27 15:03:00,79.2,69.4,29.98,SSE,163,6.0,13.0,72,0.00,,,0.00,VWS V14.01,2013-07-27 19:03:00,
2013-07-27 15:05:00,79.0,69.6,29.98,South,171,6.0,13.0,73,0.00,,,0.00,VWS V14.01,2013-07-27 19:05:00,
2013-07-27 15:09:00,78.6,69.2,29.98,SSE,147,8.0,11.0,73,0.00,,,0.00,VWS V14.01,2013-07-27 19:09:00,
2013-07-27 15:10:00,78.5,69.5,29.98,SSE,148,9.0,11.0,74,0.00,,,0.00,VWS V14.01,2013-07-27 19:10:00,
2013-07-27 15:13:00,78.5,69.5,29.98,SSE,148,7.0,12.0,74,0.00,,,0.00,VWS V14.01,2013-07-27 19:13:00,
2013-07-27 15:14:00,78.5,69.5,29.98,SSE,157,8.0,12.0,74,0.00,,,0.00,VWS V14.01,2013-07-27 19:14:00,
2013-07-27 15:17:00,78.6,69.6,29.98,SSE,167,7.0,12.0,74,0.00,,,0.00,VWS V14.01,2013-07-27 19:17:00,
2013-07-27 15:20:00,78.6,70.0,29.97,SSE,161,7.0,12.0,75,0.00,,,0.00,VWS V14.01,2013-07-27 19:20:00,
2013-07-27 15:21:00,78.6,69.6,29.97,SSE,153,12.0,12.0,74,0.00,,,0.00,VWS V14.01,2013-07-27 19:21:00,
2013-07-27 15:23:00,78.8,69.8,29.97,SSE,158,9.0,12.0,74,0.00,,,0.00,VWS V14.01,2013-07-27 19:23:00,
2013-07-27 15:25:00,78.8,70.2,29.97,SSE,155,8.0,12.0,75,0.00,,,0.00,VWS V14.01,2013-07-27 19:25:00,
2013-07-27 15:27:00,79.0,70.0,29.97,SE,146,9.0,12.0,74,0.00,,,0.00,VWS V14.01,2013-07-27 19:27:00,
2013-07-27 15:28:00,79.0,69.6,29.97,South,175,9.0,12.0,73,0.00,,,0.00,VWS V14.01,2013-07-27 19:28:00,
2013-07-27 15:31:00,79.0,69.6,29.97,SSE,153,9.0,13.0,73,0.00,,,0.00,VWS V14.01,2013-07-27 19:31:00,
2013-07-27 15:32:00,79.2,69.8,29.97,SSE,163,5.0,13.0,73,0.00,,,0.00,VWS V14.01,2013-07-27 19:32:00,
2013-07-27 15:35:00,79.0,69.2,29.97,SSE,158,8.0,13.0,72,0.00,,,0.00,VWS V14.01,2013-07-27 19:35:00,
2013-07-27 15:36:00,78.8,69.0,29.97,SE,130,11.0,11.0,72,0.00,,,0.00,VWS V14.01,2013-07-27 19:36:00,
2013-07-27 15:38:00,79.0,69.2,29.97,SSE,167,2.0,14.0,72,0.00,,,0.00,VWS V14.01,2013-07-27 19:38:00,
2013-07-27 15:42:00,79.4,70.0,29.97,SSW,193,8.0,14.0,73,0.00,,,0.00,VWS V14.01,2013-07-27 19:42:00,
2013-07-27 15:44:00,79.6,69.8,29.97,SSE,150,6.0,14.0,72,0.00,,,0.00,VWS V14.01,2013-07-27 19:44:00,
2013-07-27 15:45:00,79.6,69.4,29.97,South,178,7.0,14.0,71,0.00,,,0.00,VWS V14.01,2013-07-27 19:45:00,
2013-07-27 15:46:00,79.6,69.4,29.97,SSE,154,2.0,14.0,71,0.00,,,0.00,VWS V14.01,2013-07-27 19:46:00,
2013-07-27 15:47:00,79.8,69.6,29.97,SE,127,5.0,14.0,71,0.00,,,0.00,VWS V14.01,2013-07-27 19:47:00,
2013-07-27 15:50:00,80.5,70.2,29.97,SE,140,5.0,14.0,71,0.00,,,0.00,VWS V14.01,2013-07-27 19:50:00,
2013-07-27 15:51:00,80.7,70.0,29.97,SSE,149,0.0,14.0,70,0.00,,,0.00,VWS V14.01,2013-07-27 19:51:00,
2013-07-27 15:52:00,80.9,70.2,29.97,South,187,5.0,14.0,70,0.00,,,0.00,VWS V14.01,2013-07-27 19:52:00,
2013-07-27 15:53:00,80.9,69.4,29.97,SE,141,9.0,14.0,68,0.00,,,0.00,VWS V14.01,2013-07-27 19:53:00,
2013-07-27 15:55:00,81.1,68.7,29.97,SSE,150,9.0,14.0,66,0.00,,,0.00,VWS V14.01,2013-07-27 19:55:00,
2013-07-27 15:58:00,80.9,68.9,29.97,SSE,157,9.0,14.0,67,0.00,,,0.00,VWS V14.01,2013-07-27 19:58:00,
2013-07-27 15:59:00,80.9,68.9,29.97,SSE,167,6.0,14.0,67,0.00,,,0.00,VWS V14.01,2013-07-27 19:59:00,
2013-07-27 16:03:00,80.5,69.4,29.97,SSE,155,6.0,14.0,69,0.00,,,0.00,VWS V14.01,2013-07-27 20:03:00,
2013-07-27 16:05:00,80.3,68.8,29.96,SSE,164,6.0,14.0,68,0.00,,,0.00,VWS V14.01,2013-07-27 20:05:00,
2013-07-27 16:09:00,79.9,68.8,29.96,SSE,155,9.0,11.0,69,0.00,,,0.00,VWS V14.01,2013-07-27 20:09:00,
2013-07-27 16:10:00,79.8,69.2,29.96,SSE,168,6.0,14.0,70,0.00,,,0.00,VWS V14.01,2013-07-27 20:10:00,
2013-07-27 16:11:00,79.8,69.2,29.96,SSE,152,7.0,14.0,70,0.00,,,0.00,VWS V14.01,2013-07-27 20:11:00,
2013-07-27 16:13:00,79.6,69.0,29.96,SSE,161,7.0,14.0,70,0.00,,,0.00,VWS V14.01,2013-07-27 20:13:00,
2013-07-27 16:14:00,79.6,69.0,29.96,South,169,6.0,14.0,70,0.00,,,0.00,VWS V14.01,2013-07-27 20:14:00,
2013-07-27 16:17:00,79.4,69.2,29.96,SSE,161,6.0,14.0,71,0.00,,,0.00,VWS V14.01,2013-07-27 20:17:00,
2013-07-27 16:18:00,79.4,68.8,29.96,SE,144,7.0,14.0,70,0.00,,,0.00,VWS V14.01,2013-07-27 20:18:00,
2013-07-27 16:21:00,79.4,69.2,29.96,South,176,9.0,14.0,71,0.00,,,0.00,VWS V14.01,2013-07-27 20:21:00,
2013-07-27 16:22:00,79.4,69.2,29.96,SE,146,6.0,14.0,71,0.00,,,0.00,VWS V14.01,2013-07-27 20:22:00,
2013-07-27 16:23:00,79.4,69.2,29.96,South,180,9.0,14.0,71,0.00,,,0.00,VWS V14.01,2013-07-27 20:23:00,
2013-07-27 16:24:00,79.4,69.6,29.96,SE,128,6.0,14.0,72,0.00,,,0.00,VWS V14.01,2013-07-27 20:24:00,
2013-07-27 16:26:00,79.8,70.0,29.96,SE,140,0.0,14.0,72,0.00,,,0.00,VWS V14.01,2013-07-27 20:26:00,
2013-07-27 16:27:00,79.9,69.7,29.96,SSE,148,4.0,14.0,71,0.00,,,0.00,VWS V14.01,2013-07-27 20:27:00,
2013-07-27 16:28:00,79.9,69.2,29.96,SSE,155,6.0,14.0,70,0.00,,,0.00,VWS V14.01,2013-07-27 20:28:00,
2013-07-27 16:30:00,79.9,69.2,29.96,SE,137,12.0,14.0,70,0.00,,,0.00,VWS V14.01,2013-07-27 20:30:00,
2013-07-27 16:33:00,80.1,69.4,29.96,SSE,147,8.0,14.0,70,0.00,,,0.00,VWS V14.01,2013-07-27 20:33:00,
2013-07-27 16:37:00,79.9,69.2,29.95,SSE,156,8.0,11.0,70,0.00,,,0.00,VWS V14.01,2013-07-27 20:37:00,
2013-07-27 16:38:00,79.9,69.2,29.95,SE,144,8.0,11.0,70,0.00,,,0.00,VWS V14.01,2013-07-27 20:38:00,
2013-07-27 16:39:00,79.9,69.2,29.95,SSE,150,8.0,11.0,70,0.00,,,0.00,VWS V14.01,2013-07-27 20:39:00,
2013-07-27 16:43:00,79.8,69.2,29.95,SSE,159,6.0,11.0,70,0.00,,,0.00,VWS V14.01,2013-07-27 20:43:00,
2013-07-27 16:44:00,79.8,69.2,29.95,SSE,153,6.0,11.0,70,0.00,,,0.00,VWS V14.01,2013-07-27 20:44:00,
2013-07-27 16:45:00,79.8,69.2,29.95,SSE,157,7.0,11.0,70,0.00,,,0.00,VWS V14.01,2013-07-27 20:45:00,
2013-07-27 16:46:00,79.8,69.6,29.95,SSE,159,7.0,11.0,71,0.00,,,0.00,VWS V14.01,2013-07-27 20:46:00,
2013-07-27 16:48:00,79.8,69.2,29.95,SSE,156,10.0,11.0,70,0.00,,,0.00,VWS V14.01,2013-07-27 20:48:00,
2013-07-27 16:50:00,79.6,69.0,29.95,SE,146,5.0,11.0,70,0.00,,,0.00,VWS V14.01,2013-07-27 20:50:00,
2013-07-27 16:52:00,79.6,69.0,29.95,SSE,167,6.0,13.0,70,0.00,,,0.00,VWS V14.01,2013-07-27 20:52:00,
2013-07-27 16:54:00,79.4,69.2,29.95,SSE,153,8.0,13.0,71,0.00,,,0.00,VWS V14.01,2013-07-27 20:54:00,
2013-07-27 16:56:00,79.2,69.0,29.95,SE,128,14.0,14.0,71,0.00,,,0.00,VWS V14.01,2013-07-27 20:56:00,
2013-07-27 16:57:00,79.2,69.0,29.95,SE,140,9.0,14.0,71,0.00,,,0.00,VWS V14.01,2013-07-27 20:57:00,
2013-07-27 16:58:00,79.0,68.8,29.95,SE,146,6.0,14.0,71,0.00,,,0.00,VWS V14.01,2013-07-27 20:58:00,
2013-07-27 16:59:00,79.2,69.4,29.95,SSE,148,4.0,14.0,72,0.00,,,0.00,VWS V14.01,2013-07-27 20:59:00,
2013-07-27 17:00:00,79.0,68.8,29.95,SSE,150,8.0,14.0,71,0.00,,,0.00,VWS V14.01,2013-07-27 21:00:00,
2013-07-27 17:03:00,78.8,69.0,29.95,SE,135,5.0,14.0,72,0.00,,,0.00,VWS V14.01,2013-07-27 21:03:00,
2013-07-27 17:04:00,78.8,69.0,29.95,SSE,161,7.0,14.0,72,0.00,,,0.00,VWS V14.01,2013-07-27 21:04:00,
2013-07-27 17:05:00,78.8,69.0,29.95,SSE,159,5.0,14.0,72,0.00,,,0.00,VWS V14.01,2013-07-27 21:05:00,
2013-07-27 17:08:00,78.8,69.0,29.95,SSE,161,8.0,13.0,72,0.00,,,0.00,VWS V14.01,2013-07-27 21:08:00,
2013-07-27 17:09:00,78.8,69.0,29.95,SSE,153,8.0,13.0,72,0.00,,,0.00,VWS V14.01,2013-07-27 21:09:00,
2013-07-27 17:11:00,78.8,69.0,29.95,SSE,160,9.0,13.0,72,0.00,,,0.00,VWS V14.01,2013-07-27 21:11:00,
2013-07-27 17:12:00,78.6,68.4,29.95,SSE,165,4.0,13.0,71,0.00,,,0.00,VWS V14.01,2013-07-27 21:12:00,
2013-07-27 17:14:00,78.5,68.7,29.95,SE,144,8.0,13.0,72,0.00,,,0.00,VWS V14.01,2013-07-27 21:14:00,
2013-07-27 17:16:00,78.3,68.9,29.95,SSE,153,8.0,13.0,73,0.00,,,0.00,VWS V14.01,2013-07-27 21:16:00,
2013-07-27 17:19:00,77.7,68.8,29.95,SSE,152,7.0,13.0,74,0.00,,,0.00,VWS V14.01,2013-07-27 21:19:00,
2013-07-27 17:20:00,77.7,68.8,29.95,SSE,150,8.0,13.0,74,0.00,,,0.00,VWS V14.01,2013-07-27 21:20:00,
2013-07-27 17:22:00,77.4,68.9,29.95,SE,134,7.0,13.0,75,0.00,,,0.00,VWS V14.01,2013-07-27 21:22:00,
2013-07-27 17:23:00,77.4,68.9,29.95,SE,140,5.0,13.0,75,0.00,,,0.00,VWS V14.01,2013-07-27 21:23:00,
2013-07-27 17:27:00,77.0,68.9,29.95,SE,140,10.0,13.0,76,0.00,,,0.00,VWS V14.01,2013-07-27 21:27:00,
2013-07-27 17:30:00,76.7,68.9,29.95,SE,136,7.0,13.0,77,0.00,,,0.00,VWS V14.01,2013-07-27 21:30:00,
2013-07-27 17:31:00,76.7,68.9,29.95,SSE,159,7.0,13.0,77,0.00,,,0.00,VWS V14.01,2013-07-27 21:31:00,
2013-07-27 17:33:00,76.5,69.1,29.95,SSE,159,7.0,13.0,78,0.00,,,0.00,VWS V14.01,2013-07-27 21:33:00,
2013-07-27 17:34:00,76.5,69.1,29.94,SE,139,6.0,13.0,78,0.00,,,0.00,VWS V14.01,2013-07-27 21:34:00,
2013-07-27 17:36:00,76.3,68.9,29.94,SSE,153,6.0,8.0,78,0.00,,,0.00,VWS V14.01,2013-07-27 21:36:00,
2013-07-27 17:40:00,76.1,69.1,29.94,SE,144,8.0,9.0,79,0.00,,,0.00,VWS V14.01,2013-07-27 21:40:00,
2013-07-27 17:41:00,76.1,69.5,29.94,SE,142,7.0,9.0,80,0.00,,,0.00,VWS V14.01,2013-07-27 21:41:00,
2013-07-27 17:43:00,76.0,69.4,29.94,SE,142,6.0,10.0,80,0.00,,,0.00,VWS V14.01,2013-07-27 21:43:00,
2013-07-27 17:44:00,76.0,69.4,29.94,SE,133,6.0,10.0,80,0.00,,,0.00,VWS V14.01,2013-07-27 21:44:00,
2013-07-27 17:45:00,76.0,69.4,29.94,SSE,155,6.0,10.0,80,0.00,,,0.00,VWS V14.01,2013-07-27 21:45:00,
2013-07-27 17:47:00,75.8,69.2,29.94,SE,141,9.0,11.0,80,0.00,,,0.00,VWS V14.01,2013-07-27 21:47:00,
2013-07-27 17:49:00,75.8,69.6,29.94,SSE,147,4.0,11.0,81,0.00,,,0.00,VWS V14.01,2013-07-27 21:49:00,
2013-07-27 17:50:00,75.8,69.6,29.94,SSE,149,9.0,11.0,81,0.00,,,0.00,VWS V14.01,2013-07-27 21:50:00,
2013-07-27 17:53:00,75.6,69.4,29.94,SSE,148,5.0,11.0,81,0.00,,,0.00,VWS V14.01,2013-07-27 21:53:00,
2013-07-27 17:54:00,75.6,69.7,29.94,SSE,147,2.0,11.0,82,0.00,,,0.00,VWS V14.01,2013-07-27 21:54:00,
2013-07-27 17:55:00,75.6,69.7,29.94,SSE,154,9.0,11.0,82,0.00,,,0.00,VWS V14.01,2013-07-27 21:55:00,
2013-07-27 17:57:00,75.6,69.7,29.94,SSE,164,5.0,11.0,82,0.00,,,0.00,VWS V14.01,2013-07-27 21:57:00,
2013-07-27 17:59:00,75.6,69.7,29.94,SE,133,6.0,11.0,82,0.00,,,0.00,VWS V14.01,2013-07-27 21:59:00,
2013-07-27 18:03:00,75.6,70.1,29.94,SSE,157,5.0,11.0,83,0.00,,,0.00,VWS V14.01,2013-07-27 22:03:00,
2013-07-27 18:04:00,75.6,70.1,29.94,SSE,159,8.0,11.0,83,0.00,,,0.00,VWS V14.01,2013-07-27 22:04:00,
2013-07-27 18:05:00,75.6,69.7,29.94,SSE,148,8.0,11.0,82,0.00,,,0.00,VWS V14.01,2013-07-27 22:05:00,
2013-07-27 18:10:00,75.8,70.3,29.94,SE,140,7.0,13.0,83,0.00,,,0.00,VWS V14.01,2013-07-27 22:10:00,
2013-07-27 18:11:00,75.8,70.3,29.94,SSE,163,5.0,13.0,83,0.00,,,0.00,VWS V14.01,2013-07-27 22:11:00,
2013-07-27 18:12:00,75.8,70.3,29.94,SSE,158,5.0,13.0,83,0.00,,,0.00,VWS V14.01,2013-07-27 22:12:00,
2013-07-27 18:16:00,76.0,70.5,29.94,SSE,159,7.0,13.0,83,0.00,,,0.00,VWS V14.01,2013-07-27 22:16:00,
2013-07-27 18:17:00,76.0,70.5,29.94,SSE,163,7.0,13.0,83,0.00,,,0.00,VWS V14.01,2013-07-27 22:17:00,
2013-07-27 18:18:00,76.0,70.1,29.94,SSE,152,7.0,13.0,82,0.00,,,0.00,VWS V14.01,2013-07-27 22:18:00,
2013-07-27 18:21:00,75.8,69.9,29.94,SSE,150,4.0,13.0,82,0.00,,,0.00,VWS V14.01,2013-07-27 22:21:00,
2013-07-27 18:23:00,75.8,70.3,29.94,SE,144,4.0,13.0,83,0.00,,,0.00,VWS V14.01,2013-07-27 22:23:00,
2013-07-27 18:24:00,75.8,70.3,29.94,SSE,155,7.0,13.0,83,0.00,,,0.00,VWS V14.01,2013-07-27 22:24:00,
2013-07-27 18:25:00,75.8,70.3,29.94,SE,139,8.0,13.0,83,0.00,,,0.00,VWS V14.01,2013-07-27 22:25:00,
2013-07-27 18:26:00,75.8,70.3,29.94,SSE,153,5.0,13.0,83,0.00,,,0.00,VWS V14.01,2013-07-27 22:26:00,
2013-07-27 18:27:00,75.8,70.3,29.94,SE,146,8.0,13.0,83,0.00,,,0.00,VWS V14.01,2013-07-27 22:27:00,
2013-07-27 18:31:00,76.1,70.6,29.94,SSE,148,7.0,13.0,83,0.00,,,0.00,VWS V14.01,2013-07-27 22:31:00,
2013-07-27 18:32:00,76.1,70.2,29.94,SSE,156,5.0,13.0,82,0.00,,,0.00,VWS V14.01,2013-07-27 22:32:00,
2013-07-27 18:33:00,76.3,70.4,29.94,SSE,156,5.0,13.0,82,0.00,,,0.00,VWS V14.01,2013-07-27 22:33:00,
2013-07-27 18:34:00,76.3,70.4,29.94,SSE,167,5.0,13.0,82,0.00,,,0.00,VWS V14.01,2013-07-27 22:34:00,
2013-07-27 18:37:00,76.3,70.4,29.94,SSE,157,7.0,11.0,82,0.00,,,0.00,VWS V14.01,2013-07-27 22:37:00,
2013-07-27 18:38:00,76.3,70.4,29.94,SE,146,6.0,11.0,82,0.00,,,0.00,VWS V14.01,2013-07-27 22:38:00,
2013-07-27 18:39:00,76.1,70.2,29.94,SE,141,9.0,11.0,82,0.00,,,0.00,VWS V14.01,2013-07-27 22:39:00,
2013-07-27 18:41:00,76.1,69.8,29.94,SE,138,7.0,11.0,81,0.00,,,0.00,VWS V14.01,2013-07-27 22:41:00,
2013-07-27 18:42:00,76.1,69.8,29.94,South,169,7.0,11.0,81,0.00,,,0.00,VWS V14.01,2013-07-27 22:42:00,
2013-07-27 18:44:00,76.0,70.1,29.94,SSE,161,6.0,11.0,82,0.00,,,0.00,VWS V14.01,2013-07-27 22:44:00,
2013-07-27 18:47:00,75.8,69.9,29.94,South,173,7.0,11.0,82,0.00,,,0.00,VWS V14.01,2013-07-27 22:47:00,
2013-07-27 18:49:00,75.6,69.7,29.94,SSE,150,8.0,11.0,82,0.00,,,0.00,VWS V14.01,2013-07-27 22:49:00,
2013-07-27 18:50:00,75.6,69.7,29.94,SSE,165,4.0,11.0,82,0.00,,,0.00,VWS V14.01,2013-07-27 22:50:00,
2013-07-27 18:54:00,75.8,69.9,29.94,SSE,159,6.0,11.0,82,0.00,,,0.00,VWS V14.01,2013-07-27 22:54:00,
2013-07-27 18:55:00,75.8,69.9,29.94,SE,143,7.0,11.0,82,0.00,,,0.00,VWS V14.01,2013-07-27 22:55:00,
2013-07-27 18:56:00,75.8,70.3,29.94,SSE,149,7.0,12.0,83,0.00,,,0.00,VWS V14.01,2013-07-27 22:56:00,
2013-07-27 18:59:00,75.8,70.3,29.94,South,173,6.0,13.0,83,0.00,,,0.00,VWS V14.01,2013-07-27 22:59:00,
2013-07-27 19:00:00,75.8,70.3,29.94,SSE,149,7.0,13.0,83,0.00,,,0.00,VWS V14.01,2013-07-27 23:00:00,
2013-07-27 19:02:00,75.8,69.9,29.94,SSE,163,7.0,13.0,82,0.00,,,0.00,VWS V14.01,2013-07-27 23:02:00,
2013-07-27 19:04:00,75.8,69.9,29.95,SSE,159,9.0,13.0,82,0.00,,,0.00,VWS V14.01,2013-07-27 23:04:00,
2013-07-27 19:05:00,75.8,69.9,29.95,SSE,160,9.0,12.0,82,0.00,,,0.00,VWS V14.01,2013-07-27 23:05:00,
2013-07-27 19:08:00,75.8,69.9,29.95,SSE,165,7.0,12.0,82,0.00,,,0.00,VWS V14.01,2013-07-27 23:08:00,
2013-07-27 19:10:00,75.8,69.9,29.95,South,188,9.0,12.0,82,0.00,,,0.00,VWS V14.01,2013-07-27 23:10:00,
2013-07-27 19:11:00,75.8,69.9,29.95,SE,144,6.0,12.0,82,0.00,,,0.00,VWS V14.01,2013-07-27 23:11:00,
2013-07-27 19:14:00,75.6,69.7,29.95,SSE,150,9.0,12.0,82,0.00,,,0.00,VWS V14.01,2013-07-27 23:14:00,
2013-07-27 19:15:00,75.6,69.7,29.95,SSE,155,5.0,12.0,82,0.00,,,0.00,VWS V14.01,2013-07-27 23:15:00,
2013-07-27 19:18:00,75.6,69.7,29.95,South,169,7.0,12.0,82,0.00,,,0.00,VWS V14.01,2013-07-27 23:18:00,
2013-07-27 19:20:00,75.4,69.5,29.94,SSE,153,7.0,12.0,82,0.00,,,0.00,VWS V14.01,2013-07-27 23:20:00,
2013-07-27 19:21:00,75.4,69.5,29.94,SSE,148,6.0,12.0,82,0.00,,,0.00,VWS V14.01,2013-07-27 23:21:00,
2013-07-27 19:23:00,75.3,69.4,29.94,South,169,4.0,12.0,82,0.00,,,0.00,VWS V14.01,2013-07-27 23:23:00,
2013-07-27 19:25:00,75.3,69.8,29.94,SSE,165,4.0,12.0,83,0.00,,,0.00,VWS V14.01,2013-07-27 23:25:00,
2013-07-27 19:26:00,75.1,69.6,29.94,SSE,159,7.0,12.0,83,0.00,,,0.00,VWS V14.01,2013-07-27 23:26:00,
2013-07-27 19:27:00,75.1,69.6,29.94,SE,141,9.0,12.0,83,0.00,,,0.00,VWS V14.01,2013-07-27 23:27:00,
2013-07-27 19:31:00,74.9,69.4,29.94,SE,142,5.0,12.0,83,0.00,,,0.00,VWS V14.01,2013-07-27 23:31:00,
2013-07-27 19:32:00,74.9,69.4,29.94,SSE,153,5.0,12.0,83,0.00,,,0.00,VWS V14.01,2013-07-27 23:32:00,
2013-07-27 19:35:00,74.7,69.6,29.94,SSE,161,2.0,12.0,84,0.00,,,0.00,VWS V14.01,2013-07-27 23:35:00,
2013-07-27 19:37:00,74.6,69.4,29.94,SSE,152,7.0,9.0,84,0.00,,,0.00,VWS V14.01,2013-07-27 23:37:00,
2013-07-27 19:42:00,74.4,69.3,29.94,SSE,160,5.0,9.0,84,0.00,,,0.00,VWS V14.01,2013-07-27 23:42:00,
2013-07-27 19:43:00,74.4,69.3,29.94,SSE,164,7.0,9.0,84,0.00,,,0.00,VWS V14.01,2013-07-27 23:43:00,
2013-07-27 19:46:00,74.2,69.1,29.94,SSE,150,5.0,9.0,84,0.00,,,0.00,VWS V14.01,2013-07-27 23:46:00,
2013-07-27 19:48:00,74.2,69.1,29.94,SSE,165,2.0,9.0,84,0.00,,,0.00,VWS V14.01,2013-07-27 23:48:00,
2013-07-27 19:51:00,74.0,69.2,29.94,South,178,5.0,10.0,85,0.00,,,0.00,VWS V14.01,2013-07-27 23:51:00,
2013-07-27 19:54:00,73.9,69.1,29.94,SSE,166,2.0,10.0,85,0.00,,,0.00,VWS V14.01,2013-07-27 23:54:00,
2013-07-27 19:57:00,73.7,68.9,29.94,SSE,156,5.0,10.0,85,0.00,,,0.00,VWS V14.01,2013-07-27 23:57:00,
2013-07-27 19:58:00,73.7,69.3,29.94,SSE,159,4.0,10.0,86,0.00,,,0.00,VWS V14.01,2013-07-27 23:58:00,
2013-07-27 19:59:00,73.5,69.1,29.94,South,182,3.0,10.0,86,0.00,,,0.00,VWS V14.01,2013-07-27 23:59:00,
2013-07-27 20:03:00,73.3,68.9,29.94,SSE,149,4.0,10.0,86,0.00,,,0.00,VWS V14.01,2013-07-28 00:03:00,
2013-07-27 20:04:00,73.3,68.9,29.94,SSE,150,2.0,10.0,86,0.00,,,0.00,VWS V14.01,2013-07-28 00:04:00,
2013-07-27 20:05:00,73.3,68.9,29.94,SSE,148,5.0,10.0,86,0.00,,,0.00,VWS V14.01,2013-07-28 00:05:00,
2013-07-27 20:09:00,73.2,69.1,29.94,SSE,162,0.0,7.0,87,0.00,,,0.00,VWS V14.01,2013-07-28 00:09:00,
2013-07-27 20:12:00,73.0,68.9,29.94,SSE,149,0.0,8.0,87,0.00,,,0.00,VWS V14.01,2013-07-28 00:12:00,
2013-07-27 20:15:00,73.0,68.9,29.94,SSE,157,5.0,8.0,87,0.00,,,0.00,VWS V14.01,2013-07-28 00:15:00,
2013-07-27 20:16:00,73.0,68.9,29.94,SSE,168,2.0,8.0,87,0.00,,,0.00,VWS V14.01,2013-07-28 00:16:00,
2013-07-27 20:17:00,73.0,68.9,29.94,SSE,167,4.0,8.0,87,0.00,,,0.00,VWS V14.01,2013-07-28 00:17:00,
2013-07-27 20:18:00,72.8,68.7,29.94,SSE,161,6.0,8.0,87,0.00,,,0.00,VWS V14.01,2013-07-28 00:18:00,
2013-07-27 20:21:00,72.8,69.0,29.94,SSE,167,6.0,8.0,88,0.00,,,0.00,VWS V14.01,2013-07-28 00:21:00,
2013-07-27 20:22:00,72.8,69.0,29.94,SSE,167,5.0,8.0,88,0.00,,,0.00,VWS V14.01,2013-07-28 00:22:00,
2013-07-27 20:24:00,72.7,68.9,29.94,SSE,164,5.0,9.0,88,0.00,,,0.00,VWS V14.01,2013-07-28 00:24:00,
2013-07-27 20:26:00,72.7,68.9,29.94,SSE,153,4.0,9.0,88,0.00,,,0.00,VWS V14.01,2013-07-28 00:26:00,
2013-07-27 20:27:00,72.7,68.9,29.94,SSE,154,0.0,9.0,88,0.00,,,0.00,VWS V14.01,2013-07-28 00:27:00,
2013-07-27 20:28:00,72.7,68.9,29.94,SSE,157,2.0,9.0,88,0.00,,,0.00,VWS V14.01,2013-07-28 00:28:00,
2013-07-27 20:31:00,72.5,68.8,29.94,SSE,167,4.0,9.0,88,0.00,,,0.00,VWS V14.01,2013-07-28 00:31:00,
2013-07-27 20:32:00,72.5,68.8,29.94,South,178,5.0,9.0,88,0.00,,,0.00,VWS V14.01,2013-07-28 00:32:00,
2013-07-27 20:33:00,72.5,68.8,29.94,South,177,5.0,9.0,88,0.00,,,0.00,VWS V14.01,2013-07-28 00:33:00,
2013-07-27 20:35:00,72.5,69.1,29.94,South,175,6.0,9.0,89,0.00,,,0.00,VWS V14.01,2013-07-28 00:35:00,
2013-07-27 20:36:00,72.5,69.1,29.94,South,175,0.0,6.0,89,0.00,,,0.00,VWS V14.01,2013-07-28 00:36:00,
2013-07-27 20:37:00,72.5,69.1,29.94,SSE,160,2.0,7.0,89,0.00,,,0.00,VWS V14.01,2013-07-28 00:37:00,
2013-07-27 20:41:00,72.3,68.9,29.94,South,171,5.0,7.0,89,0.00,,,0.00,VWS V14.01,2013-07-28 00:41:00,
2013-07-27 20:42:00,72.3,68.9,29.94,South,188,6.0,7.0,89,0.00,,,0.00,VWS V14.01,2013-07-28 00:42:00,
2013-07-27 20:43:00,72.3,68.9,29.94,SSW,193,7.0,8.0,89,0.00,,,0.00,VWS V14.01,2013-07-28 00:43:00,
2013-07-27 20:44:00,72.3,68.9,29.94,SSW,192,0.0,8.0,89,0.00,,,0.00,VWS V14.01,2013-07-28 00:44:00,
2013-07-27 20:46:00,72.3,68.9,29.94,SSW,193,0.0,8.0,89,0.00,,,0.00,VWS V14.01,2013-07-28 00:46:00,
2013-07-27 20:48:00,72.3,68.9,29.94,SSW,192,0.0,8.0,89,0.00,,,0.00,VWS V14.01,2013-07-28 00:48:00,
2013-07-27 20:49:00,72.3,69.2,29.94,SSE,161,0.0,8.0,90,0.00,,,0.00,VWS V14.01,2013-07-28 00:49:00,
2013-07-27 20:51:00,72.3,69.2,29.95,SSE,167,1.0,8.0,90,0.00,,,0.00,VWS V14.01,2013-07-28 00:51:00,
2013-07-27 20:53:00,72.1,69.0,29.95,SSW,195,2.0,8.0,90,0.00,,,0.00,VWS V14.01,2013-07-28 00:53:00,
2013-07-27 20:55:00,72.1,69.0,29.95,SSW,195,0.0,8.0,90,0.00,,,0.00,VWS V14.01,2013-07-28 00:55:00,
2013-07-27 20:58:00,72.1,69.0,29.95,SSW,195,0.0,8.0,90,0.00,,,0.00,VWS V14.01,2013-07-28 00:58:00,
2013-07-27 20:59:00,72.1,69.0,29.95,SSW,194,4.0,8.0,90,0.00,,,0.00,VWS V14.01,2013-07-28 00:59:00,
2013-07-27 21:00:00,72.1,69.0,29.95,SSW,195,0.0,8.0,90,0.00,,,0.00,VWS V14.01,2013-07-28 01:00:00,
2013-07-27 21:01:00,72.1,69.0,29.95,SSW,195,4.0,8.0,90,0.00,,,0.00,VWS V14.01,2013-07-28 01:01:00,
2013-07-27 21:04:00,72.1,69.0,29.95,SSW,194,4.0,8.0,90,0.00,,,0.00,VWS V14.01,2013-07-28 01:04:00,
2013-07-27 21:05:00,72.0,68.9,29.95,SSW,194,9.0,9.0,90,0.00,,,0.00,VWS V14.01,2013-07-28 01:05:00,
2013-07-27 21:07:00,72.0,68.9,29.95,SSW,196,2.0,10.0,90,0.00,,,0.00,VWS V14.01,2013-07-28 01:07:00,
2013-07-27 21:09:00,72.0,68.9,29.95,SSW,196,3.0,10.0,90,0.00,,,0.00,VWS V14.01,2013-07-28 01:09:00,
2013-07-27 21:11:00,72.0,69.2,29.95,SSW,196,0.0,10.0,91,0.00,,,0.00,VWS V14.01,2013-07-28 01:11:00,
2013-07-27 21:12:00,72.0,69.2,29.95,SSW,196,0.0,10.0,91,0.00,,,0.00,VWS V14.01,2013-07-28 01:12:00,
2013-07-27 21:15:00,72.0,69.2,29.95,SSW,196,0.0,10.0,91,0.00,,,0.00,VWS V14.01,2013-07-28 01:15:00,
2013-07-27 21:17:00,72.0,69.2,29.95,SSW,196,0.0,10.0,91,0.00,,,0.00,VWS V14.01,2013-07-28 01:17:00,
2013-07-27 21:19:00,71.8,69.0,29.96,SSW,196,0.0,10.0,91,0.00,,,0.00,VWS V14.01,2013-07-28 01:19:00,
2013-07-27 21:20:00,71.8,69.0,29.96,SSW,196,0.0,10.0,91,0.00,,,0.00,VWS V14.01,2013-07-28 01:20:00,
2013-07-27 21:22:00,71.8,69.0,29.96,SSW,196,0.0,10.0,91,0.00,,,0.00,VWS V14.01,2013-07-28 01:22:00,
2013-07-27 21:24:00,71.8,69.0,29.96,SSW,196,0.0,10.0,91,0.00,,,0.00,VWS V14.01,2013-07-28 01:24:00,
2013-07-27 21:25:00,71.8,69.0,29.96,SSW,196,5.0,10.0,91,0.00,,,0.00,VWS V14.01,2013-07-28 01:25:00,
2013-07-27 21:27:00,71.8,69.0,29.96,SSE,148,0.0,10.0,91,0.00,,,0.00,VWS V14.01,2013-07-28 01:27:00,
2013-07-27 21:29:00,71.8,69.0,29.96,SSE,148,0.0,10.0,91,0.00,,,0.00,VWS V14.01,2013-07-28 01:29:00,
2013-07-27 21:30:00,71.6,68.8,29.96,SSE,148,0.0,10.0,91,0.00,,,0.00,VWS V14.01,2013-07-28 01:30:00,
2013-07-27 21:31:00,71.6,68.8,29.96,SSE,149,0.0,10.0,91,0.00,,,0.00,VWS V14.01,2013-07-28 01:31:00,
2013-07-27 21:35:00,71.6,68.8,29.96,SSE,165,0.0,0.0,91,0.00,,,0.00,VWS V14.01,2013-07-28 01:35:00,
2013-07-27 21:37:00,71.6,68.8,29.96,South,171,1.0,7.0,91,0.00,,,0.00,VWS V14.01,2013-07-28 01:37:00,
2013-07-27 21:39:00,71.6,68.8,29.96,South,170,0.0,7.0,91,0.00,,,0.00,VWS V14.01,2013-07-28 01:39:00,
2013-07-27 21:40:00,71.6,68.8,29.96,South,170,2.0,7.0,91,0.00,,,0.00,VWS V14.01,2013-07-28 01:40:00,
2013-07-27 21:43:00,71.6,69.2,29.96,South,171,1.0,7.0,92,0.00,,,0.00,VWS V14.01,2013-07-28 01:43:00,
2013-07-27 21:45:00,71.6,69.2,29.96,South,171,0.0,7.0,92,0.00,,,0.00,VWS V14.01,2013-07-28 01:45:00,
2013-07-27 21:46:00,71.6,69.2,29.96,South,170,0.0,7.0,92,0.00,,,0.00,VWS V14.01,2013-07-28 01:46:00,
2013-07-27 21:47:00,71.6,69.2,29.96,South,170,0.0,7.0,92,0.00,,,0.00,VWS V14.01,2013-07-28 01:47:00,
2013-07-27 21:50:00,71.5,69.1,29.96,South,170,0.0,7.0,92,0.00,,,0.00,VWS V14.01,2013-07-28 01:50:00,
2013-07-27 21:51:00,71.5,69.1,29.96,South,170,0.0,7.0,92,0.00,,,0.00,VWS V14.01,2013-07-28 01:51:00,
2013-07-27 21:52:00,71.5,69.1,29.96,South,170,5.0,7.0,92,0.00,,,0.00,VWS V14.01,2013-07-28 01:52:00,
2013-07-27 21:53:00,71.5,69.1,29.96,South,170,0.0,7.0,92,0.00,,,0.00,VWS V14.01,2013-07-28 01:53:00,
2013-07-27 21:57:00,71.5,69.1,29.96,South,170,0.0,7.0,92,0.00,,,0.00,VWS V14.01,2013-07-28 01:57:00,
2013-07-27 21:58:00,71.5,69.1,29.96,South,170,0.0,7.0,92,0.00,,,0.00,VWS V14.01,2013-07-28 01:58:00,
2013-07-27 21:59:00,71.5,69.1,29.96,South,171,0.0,7.0,92,0.00,,,0.00,VWS V14.01,2013-07-28 01:59:00,
2013-07-27 22:04:00,71.3,68.9,29.96,South,171,0.0,7.0,92,0.00,,,0.00,VWS V14.01,2013-07-28 02:04:00,
2013-07-27 22:05:00,71.3,68.9,29.95,South,170,0.0,7.0,92,0.00,,,0.00,VWS V14.01,2013-07-28 02:05:00,
2013-07-27 22:06:00,71.3,68.9,29.95,South,170,0.0,0.0,92,0.00,,,0.00,VWS V14.01,2013-07-28 02:06:00,
2013-07-27 22:07:00,71.3,68.9,29.95,South,170,0.0,0.0,92,0.00,,,0.00,VWS V14.01,2013-07-28 02:07:00,
2013-07-27 22:09:00,71.3,68.9,29.95,South,170,0.0,0.0,92,0.00,,,0.00,VWS V14.01,2013-07-28 02:09:00,
2013-07-27 22:12:00,71.1,68.7,29.95,South,170,0.0,0.0,92,0.00,,,0.00,VWS V14.01,2013-07-28 02:12:00,
2013-07-27 22:13:00,71.1,68.7,29.95,South,169,0.0,0.0,92,0.00,,,0.00,VWS V14.01,2013-07-28 02:13:00,
2013-07-27 22:15:00,71.1,68.7,29.95,South,170,0.0,0.0,92,0.00,,,0.00,VWS V14.01,2013-07-28 02:15:00,
2013-07-27 22:18:00,71.1,68.7,29.95,South,170,0.0,0.0,92,0.00,,,0.00,VWS V14.01,2013-07-28 02:18:00,
2013-07-27 22:20:00,70.9,68.5,29.94,South,170,0.0,0.0,92,0.00,,,0.00,VWS V14.01,2013-07-28 02:20:00,
2013-07-27 22:23:00,70.9,68.5,29.94,South,170,0.0,0.0,92,0.00,,,0.00,VWS V14.01,2013-07-28 02:23:00,
2013-07-27 22:25:00,70.9,68.5,29.94,South,170,0.0,0.0,92,0.00,,,0.00,VWS V14.01,2013-07-28 02:25:00,
2013-07-27 22:26:00,70.9,68.5,29.94,South,170,0.0,0.0,92,0.00,,,0.00,VWS V14.01,2013-07-28 02:26:00,
2013-07-27 22:27:00,70.8,68.4,29.94,South,171,0.0,0.0,92,0.00,,,0.00,VWS V14.01,2013-07-28 02:27:00,
2013-07-27 22:28:00,70.8,68.4,29.94,South,171,0.0,0.0,92,0.00,,,0.00,VWS V14.01,2013-07-28 02:28:00,
2013-07-27 22:33:00,70.8,68.4,29.94,South,171,0.0,0.0,92,0.00,,,0.00,VWS V14.01,2013-07-28 02:33:00,
2013-07-27 22:34:00,70.6,68.2,29.94,South,170,0.0,0.0,92,0.00,,,0.00,VWS V14.01,2013-07-28 02:34:00,
2013-07-27 22:35:00,70.6,68.2,29.94,South,171,0.0,0.0,92,0.00,,,0.00,VWS V14.01,2013-07-28 02:35:00,
2013-07-27 22:38:00,70.6,68.2,29.94,South,170,0.0,0.0,92,0.00,,,0.00,VWS V14.01,2013-07-28 02:38:00,
2013-07-27 22:40:00,70.6,68.2,29.94,South,170,0.0,0.0,92,0.00,,,0.00,VWS V14.01,2013-07-28 02:40:00,
2013-07-27 22:42:00,70.4,68.0,29.94,South,171,0.0,0.0,92,0.00,,,0.00,VWS V14.01,2013-07-28 02:42:00,
2013-07-27 22:43:00,70.4,68.0,29.94,South,170,0.0,0.0,92,0.00,,,0.00,VWS V14.01,2013-07-28 02:43:00,
2013-07-27 22:44:00,70.4,68.0,29.94,South,170,0.0,0.0,92,0.00,,,0.00,VWS V14.01,2013-07-28 02:44:00,
2013-07-27 22:45:00,70.4,68.0,29.94,South,171,0.0,0.0,92,0.00,,,0.00,VWS V14.01,2013-07-28 02:45:00,
2013-07-27 22:46:00,70.4,68.0,29.94,South,171,0.0,0.0,92,0.00,,,0.00,VWS V14.01,2013-07-28 02:46:00,
2013-07-27 22:47:00,70.4,68.0,29.94,South,169,0.0,0.0,92,0.00,,,0.00,VWS V14.01,2013-07-28 02:47:00,
2013-07-27 22:49:00,70.3,67.9,29.94,South,171,0.0,0.0,92,0.00,,,0.00,VWS V14.01,2013-07-28 02:49:00,
2013-07-27 22:50:00,70.3,67.9,29.93,South,169,0.0,0.0,92,0.00,,,0.00,VWS V14.01,2013-07-28 02:50:00,
2013-07-27 22:51:00,70.3,67.9,29.93,South,170,0.0,0.0,92,0.00,,,0.00,VWS V14.01,2013-07-28 02:51:00,
2013-07-27 22:54:00,70.3,67.9,29.93,South,170,0.0,0.0,92,0.00,,,0.00,VWS V14.01,2013-07-28 02:54:00,
2013-07-27 22:56:00,70.1,68.0,29.93,South,170,0.0,0.0,93,0.00,,,0.00,VWS V14.01,2013-07-28 02:56:00,
2013-07-27 22:57:00,70.1,68.0,29.93,South,170,0.0,0.0,93,0.00,,,0.00,VWS V14.01,2013-07-28 02:57:00,
2013-07-27 22:59:00,70.1,68.0,29.93,South,170,0.0,0.0,93,0.00,,,0.00,VWS V14.01,2013-07-28 02:59:00,
2013-07-27 23:03:00,69.9,67.8,29.93,South,170,0.0,0.0,93,0.00,,,0.00,VWS V14.01,2013-07-28 03:03:00,
2013-07-27 23:04:00,69.9,67.8,29.93,South,171,0.0,0.0,93,0.00,,,0.00,VWS V14.01,2013-07-28 03:04:00,
2013-07-27 23:05:00,69.9,67.8,29.93,South,169,0.0,0.0,93,0.00,,,0.00,VWS V14.01,2013-07-28 03:05:00,
2013-07-27 23:06:00,69.9,67.8,29.93,South,169,0.0,0.0,93,0.00,,,0.00,VWS V14.01,2013-07-28 03:06:00,
2013-07-27 23:08:00,69.8,67.7,29.93,South,171,0.0,0.0,93,0.00,,,0.00,VWS V14.01,2013-07-28 03:08:00,
2013-07-27 23:11:00,69.8,67.7,29.93,South,171,0.0,0.0,93,0.00,,,0.00,VWS V14.01,2013-07-28 03:11:00,
2013-07-27 23:12:00,69.6,67.5,29.93,South,169,0.0,0.0,93,0.00,,,0.00,VWS V14.01,2013-07-28 03:12:00,
2013-07-27 23:14:00,69.6,67.5,29.93,South,169,0.0,0.0,93,0.00,,,0.00,VWS V14.01,2013-07-28 03:14:00,
2013-07-27 23:17:00,69.4,67.3,29.93,South,171,0.0,0.0,93,0.00,,,0.00,VWS V14.01,2013-07-28 03:17:00,
2013-07-27 23:18:00,69.4,67.3,29.93,South,170,0.0,0.0,93,0.00,,,0.00,VWS V14.01,2013-07-28 03:18:00,
2013-07-27 23:19:00,69.4,67.3,29.93,South,171,0.0,0.0,93,0.00,,,0.00,VWS V14.01,2013-07-28 03:19:00,
2013-07-27 23:23:00,69.3,67.2,29.93,South,171,0.0,0.0,93,0.00,,,0.00,VWS V14.01,2013-07-28 03:23:00,
2013-07-27 23:24:00,69.3,67.2,29.93,South,171,0.0,0.0,93,0.00,,,0.00,VWS V14.01,2013-07-28 03:24:00,
2013-07-27 23:28:00,69.1,67.0,29.93,South,170,0.0,0.0,93,0.00,,,0.00,VWS V14.01,2013-07-28 03:28:00,
2013-07-27 23:29:00,69.1,67.0,29.93,South,170,0.0,0.0,93,0.00,,,0.00,VWS V14.01,2013-07-28 03:29:00,
2013-07-27 23:31:00,69.1,67.0,29.93,South,169,0.0,0.0,93,0.00,,,0.00,VWS V14.01,2013-07-28 03:31:00,
2013-07-27 23:32:00,69.1,67.0,29.93,South,171,0.0,0.0,93,0.00,,,0.00,VWS V14.01,2013-07-28 03:32:00,
2013-07-27 23:33:00,69.1,67.0,29.93,South,170,0.0,0.0,93,0.00,,,0.00,VWS V14.01,2013-07-28 03:33:00,
2013-07-27 23:37:00,68.9,66.8,29.92,South,169,0.0,0.0,93,0.00,,,0.00,VWS V14.01,2013-07-28 03:37:00,
2013-07-27 23:38:00,68.9,66.8,29.92,South,170,0.0,0.0,93,0.00,,,0.00,VWS V14.01,2013-07-28 03:38:00,
2013-07-27 23:39:00,68.9,66.8,29.92,South,170,0.0,0.0,93,0.00,,,0.00,VWS V14.01,2013-07-28 03:39:00,
2013-07-27 23:40:00,68.9,66.8,29.92,South,171,0.0,0.0,93,0.00,,,0.00,VWS V14.01,2013-07-28 03:40:00,
2013-07-27 23:44:00,68.9,66.8,29.92,South,169,0.0,0.0,93,0.00,,,0.00,VWS V14.01,2013-07-28 03:44:00,
2013-07-27 23:45:00,68.9,66.8,29.92,South,170,0.0,0.0,93,0.00,,,0.00,VWS V14.01,2013-07-28 03:45:00,
2013-07-27 23:49:00,68.8,66.7,29.92,South,171,0.0,0.0,93,0.00,,,0.00,VWS V14.01,2013-07-28 03:49:00,
2013-07-27 23:50:00,68.8,66.7,29.92,South,171,0.0,0.0,93,0.00,,,0.00,VWS V14.01,2013-07-28 03:50:00,
2013-07-27 23:51:00,68.8,66.7,29.92,South,170,0.0,0.0,93,0.00,,,0.00,VWS V14.01,2013-07-28 03:51:00,
2013-07-27 23:57:00,68.8,66.7,29.92,South,170,0.0,0.0,93,0.00,,,0.00,VWS V14.01,2013-07-28 03:57:00,
2013-07-27 23:59:00,68.8,67.0,29.92,South,171,0.0,0.0,94,0.00,,,0.00,VWS V14.01,2013-07-28 03:59:00,